GFSFLT2_925_thetae_000.txt.gz
Theta_e
326 325 323 323 322 321 322 322 322 323 324 324 324 323 323 323 323 324 324 323 323 323 324 326 328 328 327 327 328 328 328 328
331 329 329 326 323 323 322 321 322 323 324 324 323 323 322 322 320 319 319 319 320 321 321 323 325 325 325 325 325 325 326 326
332 331 331 328 326 326 324 324 324 323 324 323 324 323 322 319 319 318 317 317 318 317 317 317 319 322 322 320 319 320 322 323
333 333 332 330 329 328 327 327 327 327 326 325 325 325 322 320 319 318 315 314 314 313 313 312 315 316 317 317 316 316 317 318
333 332 333 332 332 329 328 328 328 327 327 326 325 324 324 322 319 318 318 315 315 312 313 314 313 314 314 313 312 314 316 318
333 326 324 324 329 331 330 328 328 328 327 326 324 323 323 318 316 316 318 317 317 314 315 316 315 314 313 311 311 311 313 315
327 322 322 325 328 329 328 329 329 328 328 327 324 322 319 319 318 318 318 319 318 316 313 306 304 303 304 304 304 304 305 307
324 322 323 325 324 325 326 327 327 327 327 326 324 320 318 319 320 319 319 320 318 312 306 304 303 303 304 304 304 304 304 304
322 320 319 319 318 318 319 321 321 320 320 318 317 316 314 315 317 318 318 320 316 310 307 303 304 304 304 304 303 303 303 303
320 318 317 316 315 315 316 318 319 317 316 315 313 312 312 311 311 311 311 315 313 308 307 303 304 304 303 303 302 302 303 302
318 317 315 314 313 313 315 316 314 313 313 313 312 312 311 311 311 310 308 309 309 307 304 303 304 304 303 303 302 302 302 302
317 314 314 312 311 311 311 310 310 310 309 309 309 309 310 311 311 311 308 308 308 307 304 304 304 304 303 303 302 301 301 302
314 313 312 311 311 311 310 310 310 309 309 309 308 308 308 309 311 311 310 308 307 307 305 305 304 304 303 303 302 301 302 300
313 312 311 311 311 310 309 309 309 309 310 310 309 308 308 308 307 308 310 308 307 307 306 305 304 304 303 300 298 300 301 301
312 311 310 309 308 308 309 308 309 309 310 310 310 310 309 307 307 307 308 310 307 306 307 305 304 304 303 301 298 298 297 298
310 309 309 310 310 309 308 308 307 308 307 307 307 308 307 307 306 305 307 310 308 306 306 306 304 303 301 301 299 298 294 294
311 311 310 309 309 308 307 305 304 304 304 305 304 304 304 305 306 305 304 305 306 305 305 304 303 301 296 297 295 296 295 294
310 310 309 309 308 307 304 304 304 303 303 303 303 303 303 303 304 304 302 302 302 301 299 296 296 297 297 296 295 293 292 293
309 308 308 307 306 305 305 305 305 302 301 302 302 302 302 302 301 300 298 297 297 297 297 297 297 297 296 297 295 295 294 293
308 307 307 306 307 306 306 305 304 301 301 301 301 301 299 298 298 297 296 297 298 298 298 297 297 296 295 292 292 291 292 292

GFSFLT2_925_thetae_003.txt.gz
Theta_e
323 322 321 322 322 322 322 322 322 323 323 323 323 323 323 323 323 322 322 320 319 320 321 322 325 326 327 327 328 328 328 328
325 325 325 324 322 323 322 321 321 322 322 322 322 323 323 322 321 319 317 317 317 317 317 318 320 324 324 324 325 325 325 325
329 328 328 328 326 325 324 324 324 324 324 323 323 323 323 320 318 318 316 314 314 313 312 313 314 317 320 321 321 320 320 321
330 330 330 328 327 327 325 325 326 326 326 326 324 324 324 321 319 319 318 316 313 311 310 310 312 314 316 317 317 316 320 321
331 331 330 329 329 328 327 325 326 326 326 326 325 323 322 322 319 317 317 318 316 316 312 314 315 315 315 315 314 314 317 319
333 330 330 327 328 329 329 329 327 327 327 327 326 324 322 321 318 318 318 319 319 317 316 314 309 309 310 309 307 309 314 316
334 331 326 322 324 327 329 329 327 328 328 327 327 325 322 319 317 318 318 319 319 319 314 306 302 302 303 304 304 304 304 308
333 327 322 321 323 323 323 324 325 326 325 324 326 324 320 317 314 314 315 317 319 319 312 305 303 303 304 304 304 304 303 304
331 323 319 317 319 318 317 317 319 319 318 318 317 316 314 314 313 312 312 314 317 319 312 307 303 304 304 303 303 302 303 303
328 321 316 316 316 316 314 315 316 317 315 315 314 313 312 311 311 310 310 311 313 316 312 307 303 304 305 304 303 302 302 302
323 319 316 315 315 313 313 312 312 312 311 311 310 310 310 310 310 309 309 311 311 311 310 307 305 305 305 304 303 302 302 301
319 317 314 315 314 312 311 311 311 310 309 309 309 309 309 310 310 309 310 311 310 309 309 307 305 305 304 304 305 303 301 301
317 315 314 314 311 309 310 309 309 309 309 308 308 308 307 307 308 308 309 311 311 310 308 307 306 304 305 305 305 303 302 303
315 311 309 308 308 308 308 308 309 309 308 308 307 307 307 307 307 307 307 309 310 310 309 308 306 306 305 306 307 306 303 303
309 308 309 310 309 309 308 308 307 307 306 305 304 304 303 304 304 304 305 307 308 308 309 308 308 306 304 306 308 307 306 304
310 309 309 308 308 307 305 304 305 305 304 303 301 300 302 303 303 303 303 306 307 307 308 308 308 308 305 303 304 303 306 306
308 308 308 308 307 306 306 305 305 304 303 302 301 300 301 302 302 302 302 302 303 305 306 306 306 306 306 304 301 299 298 300
308 308 308 308 306 306 305 305 305 304 303 301 301 301 300 301 301 301 301 300 300 300 299 300 300 300 299 299 300 298 298 297
308 307 307 306 306 305 305 306 305 303 301 300 300 300 300 299 299 298 298 297 298 298 298 298 298 298 298 297 297 297 296 295
307 306 306 306 305 305 305 306 305 301 300 299 299 298 298 297 297 296 297 298 298 299 299 298 297 295 294 293 293 293 292 292

GFSFLT2_925_thetae_006.txt.gz
Theta_e
330 330 328 322 322 322 322 323 323 323 323 323 323 323 323 323 323 322 320 319 318 318 318 319 321 323 325 327 327 327 331 331
331 331 330 330 330 323 322 322 322 323 323 323 323 324 324 323 321 322 318 316 315 314 314 314 315 318 322 324 324 326 328 329
332 331 331 330 328 328 325 324 324 325 328 326 328 328 328 326 321 318 317 316 314 312 311 310 310 316 317 318 321 324 324 324
333 333 332 330 327 330 329 328 329 331 331 331 329 329 328 325 324 318 316 316 317 315 315 313 316 317 318 319 320 322 321 322
333 335 334 331 327 328 327 327 327 329 332 332 331 330 329 327 326 324 323 322 320 320 320 319 320 318 317 318 318 318 316 317
335 334 335 333 328 327 327 327 326 327 328 331 330 328 327 327 324 322 320 320 321 320 320 320 316 314 313 313 314 312 312 313
336 336 334 330 331 327 327 327 326 326 327 326 327 325 325 323 321 319 319 319 319 320 319 316 311 310 310 311 310 311 312 311
337 337 333 328 327 327 325 324 323 323 322 322 324 324 322 320 318 317 316 316 317 318 317 314 311 310 309 310 309 309 310 310
336 335 328 327 325 323 320 319 319 319 318 319 320 320 318 318 316 316 316 316 317 318 318 315 312 310 309 309 309 309 308 308
333 330 324 323 322 322 320 320 320 319 318 318 319 319 319 318 317 316 316 316 316 316 316 314 313 310 309 309 308 308 308 308
331 327 320 320 322 321 320 320 318 316 316 315 315 315 316 316 315 315 316 316 315 315 315 314 313 311 309 309 309 308 307 307
329 323 322 322 321 318 316 315 315 313 313 312 312 312 312 313 314 315 316 316 315 314 314 314 312 311 310 309 308 309 308 307
323 322 316 315 314 313 313 313 313 313 312 312 312 311 311 311 311 311 312 313 313 314 314 314 314 312 311 310 309 309 309 308
316 314 313 313 312 312 312 312 312 312 311 311 309 307 307 307 308 308 309 309 310 311 313 313 314 313 312 311 312 310 309 308
314 313 313 312 311 311 312 312 311 311 309 308 307 306 305 305 306 306 307 307 307 308 309 310 312 312 312 312 313 313 311 309
313 312 312 310 310 310 310 310 310 309 308 307 306 304 304 304 304 305 305 306 306 306 306 307 308 310 310 311 311 311 314 312
313 312 311 311 309 309 309 309 308 308 307 305 303 303 303 303 304 304 305 304 304 305 306 306 307 308 308 309 309 309 308 309
312 311 311 310 309 308 308 309 308 307 305 303 303 302 302 302 303 303 303 303 303 303 303 303 303 304 303 303 303 301 303 305
311 311 310 310 309 307 307 306 306 305 304 302 301 301 301 302 302 302 302 302 301 301 302 301 300 299 298 297 295 295 295 296
312 311 310 309 307 306 305 306 306 304 302 301 300 300 301 301 301 301 301 301 301 301 300 298 298 299 298 296 295 295 294 293

GFSFLT2_925_thetae_009.txt.gz
Theta_e
328 328 326 321 321 322 322 323 323 324 324 323 323 322 322 322 320 320 316 314 314 313 313 312 313 315 320 323 325 326 328 330
330 330 329 329 331 322 322 322 323 323 324 324 324 329 327 325 324 321 317 316 315 313 311 310 309 311 314 318 321 325 327 326
331 330 328 327 326 324 327 326 326 329 330 330 330 329 328 327 325 321 317 317 316 318 316 314 314 317 318 318 317 324 324 323
333 333 330 328 324 327 327 326 328 329 330 330 329 329 328 327 326 325 324 323 322 320 320 320 320 319 318 319 320 320 318 319
332 336 332 329 326 326 327 326 326 327 329 330 328 328 328 326 325 324 323 322 321 321 321 321 321 318 317 317 317 317 316 316
331 335 331 329 328 327 326 326 325 326 327 328 326 325 325 325 323 321 320 319 320 320 320 320 319 315 313 313 313 313 312 313
330 334 329 326 327 327 327 326 326 326 325 324 323 324 323 322 320 319 318 318 318 318 318 318 316 314 312 312 312 312 312 313
330 333 330 325 325 326 326 323 322 321 320 320 321 322 321 320 319 318 317 317 317 317 318 319 316 314 313 312 312 311 311 312
331 332 328 324 325 324 321 320 320 320 319 319 319 320 319 319 318 318 317 317 317 317 317 317 317 316 313 312 312 312 312 311
329 331 326 323 322 321 321 320 320 320 319 318 319 319 318 318 317 317 317 318 317 317 316 316 316 316 315 313 312 311 311 311
329 330 322 321 322 322 321 320 319 317 316 316 316 315 316 316 316 316 317 317 317 317 317 316 316 316 315 314 312 311 311 311
328 328 321 321 322 321 318 317 317 316 316 315 315 315 315 314 314 314 314 314 314 315 316 316 317 316 315 315 314 313 311 311
327 323 321 319 318 317 316 316 316 316 315 315 314 312 311 310 310 310 310 310 310 311 312 314 315 315 317 317 316 314 313 311
321 319 317 316 316 315 315 315 315 315 314 313 312 310 309 309 308 308 308 308 308 309 310 312 312 313 315 316 319 316 315 314
317 316 315 315 314 314 314 314 314 313 312 312 311 309 308 307 306 307 307 307 307 308 308 308 310 310 311 314 316 316 316 313
316 315 314 313 313 313 313 313 312 312 311 310 309 307 306 305 305 306 306 306 306 306 306 307 307 308 308 308 309 312 315 315
316 315 314 313 313 312 312 312 312 312 311 308 306 305 305 304 304 304 305 305 305 305 305 305 305 305 306 306 307 307 308 306
315 315 314 313 313 313 312 311 310 308 307 306 305 304 303 303 303 304 304 304 304 304 304 304 303 302 302 302 302 301 301 301
315 314 314 313 312 311 309 308 308 308 306 305 303 302 302 302 303 303 303 303 303 303 303 301 300 299 299 300 299 298 297 297
315 315 314 313 312 311 310 309 308 306 304 302 301 301 301 302 302 302 302 301 300 300 300 299 298 298 297 296 297 297 297 296

GFSFLT2_925_thetae_012.txt.gz
Theta_e
326 321 320 320 320 321 322 322 322 322 322 322 322 324 324 324 321 316 314 313 313 312 311 310 309 308 311 311 313 318 323 329
330 330 330 332 325 317 319 321 322 324 326 326 328 330 328 326 325 321 318 318 318 317 318 317 315 315 317 318 315 319 325 324
329 328 327 331 327 326 328 324 330 331 331 329 330 329 330 327 325 325 324 323 321 321 320 320 320 320 320 319 318 321 323 321
332 330 328 325 325 328 327 327 328 330 330 330 330 328 329 327 327 326 325 322 321 322 321 321 322 321 318 318 319 319 319 316
334 332 329 329 325 326 327 327 326 327 331 328 328 326 326 326 324 324 321 320 321 320 321 321 321 320 316 315 315 316 316 314
335 333 329 328 329 328 327 327 325 326 326 327 325 324 324 322 321 320 319 318 318 319 318 318 319 318 315 313 313 313 313 313
332 332 328 328 325 327 327 326 326 324 323 323 323 323 322 321 319 319 318 317 317 317 317 318 319 317 315 313 312 313 312 312
332 333 328 325 326 327 326 323 322 321 320 319 321 321 321 320 319 319 318 318 318 317 317 318 319 318 317 315 313 312 312 311
331 334 328 325 325 325 323 320 321 320 320 320 320 320 320 319 319 318 318 318 318 317 318 318 317 317 317 316 315 312 312 312
331 332 327 324 324 322 321 322 320 320 320 318 319 319 317 317 317 317 317 317 317 318 318 318 318 317 317 317 316 315 312 312
329 330 326 323 323 322 322 321 319 318 317 317 316 316 316 315 315 315 315 315 316 315 316 317 318 317 317 317 315 316 315 312
329 329 323 321 322 322 320 318 318 317 317 316 315 315 313 311 311 311 311 311 311 312 312 311 313 314 315 316 316 316 315 314
326 324 322 321 320 318 317 317 316 316 316 314 313 312 311 310 309 309 308 309 309 309 309 310 310 311 313 314 314 314 315 317
320 318 317 316 317 316 315 315 315 315 315 313 312 311 309 308 307 307 308 307 307 308 309 309 308 308 310 311 310 310 311 313
318 316 315 314 314 315 314 314 314 313 313 312 312 311 309 307 306 306 305 307 306 306 307 307 308 307 307 308 308 308 309 310
316 316 315 314 313 314 314 313 314 314 314 312 311 308 307 305 304 304 304 305 305 306 306 305 306 307 306 306 305 304 306 307
316 315 315 315 314 313 313 314 312 311 309 309 307 306 304 303 303 303 304 303 304 305 304 305 305 303 303 302 302 301 302 301
316 315 315 314 314 313 311 310 310 309 308 306 304 303 302 302 302 302 303 304 304 303 303 302 301 301 301 301 300 300 299 298
316 316 316 314 313 312 312 310 309 307 306 304 302 302 302 301 301 302 302 301 300 300 300 300 299 299 299 298 298 297 297 296
316 316 315 314 313 312 311 308 306 305 303 301 301 301 301 300 300 300 299 299 298 298 298 297 297 297 297 297 297 297 297 297

GFSFLT2_925_thetae_015.txt.gz
Theta_e
318 320 317 315 318 319 320 320 320 321 321 323 327 325 325 323 323 321 321 320 319 318 319 319 317 315 317 318 317 316 324 325
328 329 328 321 313 314 317 320 323 326 327 328 329 329 327 326 324 324 323 322 321 321 320 320 320 320 320 319 318 319 322 323
329 330 330 325 326 324 326 329 329 330 329 330 329 328 327 326 326 326 324 321 321 321 320 321 321 321 320 317 318 317 318 319
328 327 328 328 327 327 326 329 329 329 329 329 329 328 328 327 327 325 320 321 321 318 320 320 321 320 318 314 315 315 315 314
329 329 326 327 327 328 327 328 330 331 329 328 326 326 325 323 321 320 319 318 318 318 319 318 318 319 317 315 313 312 312 313
331 326 327 327 327 327 327 326 328 326 328 326 325 324 323 321 320 318 318 317 318 317 317 316 317 318 317 315 314 312 312 312
332 325 317 324 327 326 326 327 324 325 323 322 318 323 321 320 319 318 318 318 317 317 317 316 317 318 318 317 314 313 312 311
331 328 327 323 327 326 324 322 322 322 321 319 318 319 320 319 318 318 318 318 318 318 317 317 318 317 317 318 317 316 314 312
331 329 326 326 327 324 325 320 320 320 320 319 319 319 319 319 318 318 317 317 317 315 316 317 317 317 317 317 317 317 316 314
331 326 326 325 325 322 321 321 320 320 320 320 319 317 316 316 314 313 313 313 313 314 313 314 315 314 313 313 314 315 315 315
329 326 325 324 325 321 321 321 319 318 317 316 315 315 315 314 310 309 309 309 309 309 310 309 308 308 308 311 313 314 314 313
329 327 325 323 322 322 320 319 317 316 315 314 313 312 311 311 310 309 308 307 307 308 307 306 308 310 310 310 310 311 312 312
323 319 317 321 320 318 315 315 315 315 313 312 312 312 312 311 309 306 306 307 306 306 306 305 306 307 308 308 309 309 309 309
317 316 316 315 315 315 314 315 314 314 313 313 311 310 309 307 305 305 305 305 306 305 304 306 307 306 306 306 306 306 306 306
315 315 314 314 314 314 313 313 313 314 313 312 309 307 306 304 303 303 303 303 304 303 303 306 305 306 306 305 304 304 302 305
315 315 314 314 313 313 313 313 313 311 309 308 307 305 304 302 302 302 301 301 302 304 305 304 304 304 303 304 301 300 301 300
315 315 315 314 314 314 313 311 309 310 307 306 305 304 302 301 300 300 302 303 303 302 302 302 302 301 300 301 301 300 299 297
316 315 315 314 314 313 311 310 308 307 305 304 303 301 301 300 301 301 301 301 301 300 300 300 300 299 298 298 298 298 299 298
316 316 315 314 313 312 310 308 306 305 303 302 301 300 300 300 299 298 298 298 298 298 298 298 297 297 296 297 297 297 297 296
315 314 314 311 310 309 307 305 305 304 303 301 300 300 300 297 297 298 298 297 297 297 296 296 296 296 295 296 296 296 296 296

GFSFLT2_925_thetae_018.txt.gz
Theta_e
319 318 318 318 318 318 318 319 320 320 322 326 326 325 324 323 324 323 321 321 321 320 320 320 320 319 319 317 318 319 321 322
319 319 314 310 312 316 317 320 324 325 328 328 327 326 326 326 325 324 321 321 321 319 320 320 321 320 318 315 317 317 317 319
326 325 321 322 318 323 326 328 328 328 329 328 327 327 327 326 326 324 321 321 320 318 319 319 320 319 318 316 313 314 315 315
328 327 326 326 324 326 327 328 329 329 329 328 328 327 328 326 325 320 319 318 317 318 319 318 317 318 318 316 315 312 311 312
328 327 326 327 327 326 327 328 329 329 328 327 326 327 324 322 320 318 318 317 317 317 317 316 316 317 317 317 316 314 312 311
327 325 327 327 326 327 327 328 330 329 328 325 324 324 322 320 318 318 318 317 317 317 317 317 316 317 317 317 317 316 314 313
327 327 327 327 327 326 326 327 328 327 325 323 319 322 319 319 319 318 318 318 318 318 317 316 316 318 317 317 318 318 316 314
328 323 326 327 326 325 326 323 324 324 321 319 316 318 319 319 318 318 316 315 314 314 313 314 314 316 317 316 316 316 316 316
328 322 323 325 326 325 323 321 322 321 320 319 319 319 319 318 316 312 310 311 310 310 310 311 311 310 310 310 309 308 309 311
328 327 324 325 326 323 324 319 320 320 319 319 319 318 316 315 311 310 311 310 309 308 308 308 307 306 307 306 308 308 308 309
327 324 326 325 324 322 321 320 318 317 318 316 315 314 313 312 311 310 309 307 307 307 306 305 304 303 304 306 305 305 306 307
327 327 325 324 325 322 320 317 316 315 314 313 312 310 310 309 309 307 306 306 305 305 305 304 303 303 307 306 306 306 305 308
324 326 325 324 316 315 315 314 313 312 311 311 310 310 309 308 306 304 304 304 305 304 303 303 303 305 305 305 305 304 306 304
315 315 315 315 314 314 314 313 313 313 311 311 308 307 306 305 303 302 301 301 301 301 302 304 305 305 305 305 302 304 303 303
314 314 314 314 314 313 313 313 313 312 309 307 306 306 305 303 301 300 299 301 302 303 303 304 304 304 304 303 301 301 300 301
314 314 314 314 314 314 313 313 312 310 309 307 305 305 303 301 300 300 300 301 302 301 301 301 301 302 301 302 300 300 300 299
315 314 314 314 314 313 313 311 309 308 306 306 305 304 301 300 299 300 300 299 300 300 300 300 299 299 299 298 297 296 297 297
315 315 314 314 313 312 311 309 308 306 304 303 302 300 300 299 299 298 297 298 297 297 297 297 297 296 296 296 296 297 296 296
315 314 312 313 312 310 309 307 306 305 304 303 301 300 300 298 297 297 298 297 295 295 295 295 295 294 294 295 295 295 295 295
313 311 309 309 308 307 306 305 305 304 303 301 300 300 299 296 294 296 295 295 294 295 294 293 293 292 292 293 292 293 294 294

GFSFLT2_925_thetae_021.txt.gz
Theta_e
327 324 321 319 319 319 318 318 318 318 322 325 324 323 324 324 323 320 320 320 319 319 318 319 319 318 317 313 313 317 318 318
317 315 316 317 317 317 318 317 318 325 326 326 325 325 325 325 324 322 321 320 318 319 319 318 318 317 317 316 314 311 314 316
319 314 313 313 315 317 320 324 326 328 328 327 326 326 326 326 324 322 320 319 318 318 318 317 316 316 316 316 316 314 312 311
322 318 318 318 322 324 327 327 327 328 329 328 327 327 327 324 323 321 320 318 317 318 318 316 315 316 317 317 316 316 315 313
324 321 322 322 326 327 327 328 328 328 327 327 326 327 325 322 320 318 318 317 317 317 317 317 316 317 317 317 317 317 317 316
326 325 325 325 325 327 327 328 328 329 327 325 324 324 322 320 318 318 318 318 318 316 315 314 313 315 316 316 317 317 317 316
327 327 325 326 326 326 326 328 329 328 326 324 322 323 320 319 318 318 317 315 313 311 311 310 310 311 313 314 313 313 313 314
327 326 327 326 326 327 327 327 328 326 325 321 319 321 318 319 317 316 311 311 311 310 309 308 308 308 307 307 308 307 307 308
327 327 326 326 326 326 326 324 324 325 322 319 318 320 319 317 312 310 310 309 308 308 307 306 306 304 303 302 303 304 305 305
326 325 325 326 325 324 321 321 323 322 319 319 319 316 313 311 310 310 309 307 307 307 305 305 304 303 302 301 302 303 303 304
326 325 325 325 323 322 321 318 317 319 317 314 313 312 310 310 309 307 307 306 305 304 304 303 302 302 301 302 302 303 303 304
326 325 325 324 323 318 317 315 314 313 312 311 310 310 309 309 308 306 304 303 303 302 301 301 300 303 305 304 304 302 304 304
326 325 325 316 315 314 312 312 312 312 311 311 310 310 309 308 306 304 302 302 300 299 301 302 303 304 304 303 303 304 302 302
318 318 320 316 315 315 314 314 313 312 311 310 309 307 306 305 304 303 302 300 299 301 302 302 302 302 303 302 300 301 301 300
314 314 315 315 315 313 313 313 313 311 309 307 304 303 302 301 301 300 299 299 300 300 300 300 300 300 300 301 299 299 298 299
314 314 314 314 313 314 314 313 313 310 306 303 303 302 302 300 299 298 298 298 297 298 299 299 299 299 299 298 297 297 296 296
314 313 313 313 313 313 313 312 309 306 303 303 302 302 306 305 300 298 298 297 297 297 297 298 297 297 296 295 295 296 296 295
313 313 313 313 313 312 310 309 307 306 305 306 305 305 304 300 299 298 296 295 296 294 295 295 295 295 294 294 295 295 295 295
313 313 312 311 310 309 309 308 307 306 305 304 303 302 300 299 298 296 294 294 294 294 294 293 292 292 292 292 292 292 292 293
310 309 309 308 308 307 307 306 305 304 303 302 301 301 300 298 295 294 295 295 294 294 294 291 291 291 291 291 291 290 290 291

GFSFLT2_925_thetae_024.txt.gz
Theta_e
335 333 331 327 322 320 318 318 317 318 321 322 321 323 323 322 320 320 319 318 318 317 317 317 316 316 316 315 313 311 311 314
331 328 323 321 319 318 318 318 318 323 325 324 324 324 324 323 321 320 320 319 318 318 317 317 316 316 316 316 316 314 313 311
323 319 319 317 317 318 319 319 324 326 326 325 325 325 325 324 323 321 319 318 318 318 318 316 315 316 316 316 316 316 315 315
318 316 315 315 317 318 321 324 327 328 327 326 326 327 326 324 323 321 318 317 317 317 317 316 316 314 317 317 317 316 316 316
318 316 314 317 319 324 325 326 327 327 327 327 326 326 326 323 319 318 317 318 317 317 316 313 311 312 313 315 315 316 316 317
320 319 319 322 323 325 327 327 327 328 327 326 324 324 322 319 318 318 317 316 314 311 310 310 309 309 309 310 311 311 313 314
323 321 321 321 324 326 327 327 328 329 327 325 324 322 320 318 317 315 311 310 310 309 308 308 307 307 305 304 304 306 307 307
325 324 322 324 325 325 326 327 328 329 327 324 322 320 318 317 313 310 310 309 308 307 307 306 305 304 303 302 301 301 301 302
326 326 327 325 324 325 325 327 327 328 325 320 320 319 317 312 310 310 309 308 307 307 306 305 304 303 302 301 300 300 302 303
327 327 325 324 324 325 323 321 324 324 319 318 316 313 311 310 310 310 309 308 306 305 303 302 301 300 300 300 300 301 302 303
326 325 325 325 322 323 318 317 319 317 314 313 311 310 311 310 311 308 305 304 303 302 301 300 300 301 301 301 300 300 303 302
324 325 325 325 322 315 315 314 313 313 313 313 311 312 309 308 306 303 303 301 301 300 300 300 301 302 302 301 300 302 301 301
325 323 324 315 313 313 313 313 313 314 312 309 310 309 306 306 304 303 302 301 299 298 298 299 300 300 301 299 299 302 298 300
326 324 319 314 315 316 316 315 313 311 309 309 307 306 305 304 303 303 303 301 297 296 297 299 299 299 299 299 297 299 300 298
318 320 316 315 316 314 313 313 311 309 306 306 305 304 304 305 305 303 299 297 297 296 298 299 298 298 298 299 296 296 296 296
313 313 313 313 312 312 313 312 312 310 306 304 304 304 303 305 303 299 298 298 296 296 297 297 297 297 297 298 296 295 296 295
312 312 312 312 313 312 312 311 309 307 305 305 305 304 304 302 300 298 298 296 295 294 295 295 295 295 295 294 293 295 295 294
313 313 313 312 312 312 311 309 308 307 306 305 304 302 302 300 299 298 296 294 294 293 293 293 292 292 292 292 292 293 293 292
312 312 311 311 310 309 308 307 306 304 303 303 302 302 301 300 298 297 294 294 294 294 294 294 292 291 291 291 291 291 290 291
310 309 309 308 307 306 304 303 303 303 303 303 302 301 300 299 297 294 294 294 296 293 292 291 289 289 289 289 289 288 287 286

GFSFLT2_925_thetae_027.txt.gz
Theta_e
336 334 331 329 325 322 319 318 316 318 318 320 322 321 320 319 319 319 318 318 317 316 315 314 315 315 316 315 315 315 314 313
336 334 331 328 324 320 318 318 319 322 322 322 323 323 322 321 320 319 318 318 317 317 316 315 314 315 315 316 315 315 315 315
334 331 328 323 321 319 319 318 323 324 324 324 324 324 324 322 320 319 317 317 317 318 316 316 314 312 314 314 314 315 315 316
329 327 323 320 319 319 320 321 324 326 325 325 326 326 325 324 321 319 317 317 317 316 316 312 310 310 310 310 312 314 314 316
323 320 319 318 319 320 321 324 326 327 327 326 326 326 326 323 318 317 317 317 315 312 310 310 309 308 308 308 308 310 312 313
319 318 317 318 320 321 324 325 327 327 327 327 326 326 323 318 317 316 315 312 310 309 309 308 308 307 305 304 303 305 307 307
320 319 319 320 322 323 325 326 327 328 328 326 325 322 319 317 315 312 311 310 309 309 308 307 306 305 304 302 302 301 301 303
322 321 321 321 322 324 325 326 326 327 327 325 322 320 318 314 311 310 309 310 309 308 306 305 304 304 303 302 302 303 302 301
324 324 324 323 324 325 325 324 325 325 324 321 320 318 314 311 311 311 309 308 306 305 304 304 304 303 304 304 304 304 304 303
325 325 323 324 325 320 319 322 321 322 321 318 318 315 312 311 310 309 306 304 304 303 303 303 304 304 304 304 303 302 304 304
325 324 324 324 322 321 321 319 319 317 315 313 312 311 310 310 307 305 303 304 303 302 303 301 303 302 301 302 300 301 304 303
325 325 325 322 321 323 317 317 313 312 313 314 312 309 308 307 305 304 303 303 302 301 300 300 301 301 299 300 299 301 303 301
325 325 324 324 322 315 313 312 311 313 311 308 308 307 305 304 305 304 303 300 297 297 299 299 298 300 299 298 299 303 302 300
324 324 324 321 317 315 313 313 312 309 307 307 305 304 304 305 303 302 299 298 297 295 297 298 299 299 298 298 299 298 300 298
324 323 316 315 314 314 314 312 309 306 305 305 304 305 305 305 301 300 298 298 298 297 298 298 297 298 298 297 299 298 296 296
321 323 314 314 314 312 312 312 312 309 308 306 305 305 304 303 301 300 298 298 296 296 296 296 296 296 295 296 295 295 295 295
312 313 312 311 311 311 311 311 309 307 306 305 305 303 302 301 301 299 298 297 293 292 295 295 295 294 294 293 292 293 293 293
312 312 312 312 312 310 309 308 307 304 303 303 303 302 302 301 300 299 298 295 293 294 294 294 294 294 293 292 291 291 291 291
312 311 311 310 309 307 304 303 303 303 303 303 303 303 302 301 300 298 297 294 294 296 295 295 294 292 292 291 291 290 290 289
310 309 308 307 306 304 303 303 303 303 303 302 301 301 301 300 299 298 296 294 294 296 295 294 294 292 291 290 290 289 289 288

GFSFLT2_925_thetae_030.txt.gz
Theta_e
338 337 335 332 329 323 320 319 318 317 318 319 319 319 319 319 319 319 318 317 317 315 314 314 314 314 314 313 312 313 317 316
337 336 334 333 330 322 319 318 319 319 320 321 321 321 320 320 321 319 318 318 317 316 315 315 312 311 312 311 313 316 317 317
337 334 333 331 328 325 320 319 322 323 322 323 325 326 326 325 319 318 317 317 317 316 316 312 313 314 313 312 315 315 316 316
334 333 332 329 325 325 326 326 328 329 329 329 328 329 328 326 320 317 317 316 316 315 311 312 313 314 314 313 313 313 314 314
332 331 328 325 325 325 326 329 330 330 331 330 331 330 329 326 322 321 320 318 317 315 314 313 313 312 311 310 310 310 310 310
326 326 326 326 325 326 328 329 330 330 331 331 330 329 328 323 321 320 318 317 315 314 313 313 311 310 310 309 309 309 309 308
324 324 325 325 327 328 329 330 330 331 330 329 327 326 324 321 319 317 316 315 314 314 313 311 310 310 309 309 308 308 308 308
326 325 325 326 328 329 329 328 327 326 326 325 324 324 322 319 317 315 314 314 313 312 310 310 310 309 309 309 309 308 308 307
327 327 326 327 328 327 324 323 322 322 324 324 323 320 317 317 316 315 312 311 308 308 309 309 310 309 309 308 307 307 306 306
328 327 327 326 321 321 321 320 320 321 323 320 318 314 314 313 313 310 307 308 309 309 309 309 307 307 305 304 304 303 303 305
328 328 326 321 321 318 321 322 321 319 317 313 311 311 309 309 310 309 308 308 309 307 306 304 303 304 303 301 301 301 300 303
329 328 325 324 323 319 321 318 316 313 312 311 310 310 310 309 309 309 308 307 305 303 302 302 301 301 301 300 301 300 301 303
329 327 325 325 321 318 316 314 312 310 311 311 310 309 308 309 308 307 305 304 303 302 301 301 301 301 301 300 300 301 304 303
329 327 327 325 323 320 318 316 316 314 310 309 308 308 308 307 306 305 303 303 303 302 301 300 299 299 300 300 301 300 300 301
328 328 326 323 320 318 317 316 313 311 310 309 308 307 306 306 305 303 303 302 301 301 300 299 299 298 298 299 301 300 298 297
328 324 320 319 318 318 317 316 316 314 312 309 308 306 305 304 303 303 303 302 302 300 298 299 298 298 297 297 297 296 298 297
324 321 318 316 316 315 316 315 313 311 309 308 307 306 305 304 304 303 303 302 301 300 299 299 297 296 296 295 295 294 293 294
319 316 315 314 314 314 314 312 311 309 307 306 304 303 304 304 304 303 303 302 301 300 299 298 297 296 294 294 293 293 293 293
316 315 314 314 313 311 309 308 306 304 304 304 304 303 302 301 302 302 302 301 300 299 298 297 296 295 294 293 292 292 292 291
315 314 313 311 310 307 306 305 305 304 304 304 301 300 300 300 301 300 299 299 298 298 297 296 296 295 293 293 292 291 291 291

GFSFLT2_925_thetae_033.txt.gz
Theta_e
337 336 334 331 328 323 320 318 318 317 318 319 319 319 318 318 317 318 317 317 316 315 315 313 312 312 312 313 316 317 318 318
336 336 334 334 331 323 319 319 319 320 320 320 319 319 319 320 323 318 318 317 317 316 315 311 314 315 314 314 316 317 317 317
335 332 332 331 329 321 321 320 320 321 322 322 325 326 326 327 320 317 316 317 316 316 313 311 315 315 314 313 315 315 315 315
333 332 331 328 324 325 325 326 327 328 328 327 329 328 329 326 319 317 316 316 317 315 313 315 316 315 315 314 314 314 313 313
331 331 329 324 324 325 326 329 329 329 330 331 329 328 329 328 323 322 322 319 320 317 317 316 316 315 314 313 313 313 313 312
329 328 326 325 324 325 328 329 330 330 330 331 330 329 328 326 322 321 321 319 318 317 317 316 315 314 313 313 312 312 312 311
325 325 326 327 327 329 330 331 332 332 332 331 328 328 326 325 322 320 319 318 317 317 316 314 313 314 313 312 312 311 311 311
325 325 327 329 330 331 331 331 331 330 329 328 322 320 320 323 321 319 318 317 315 312 312 313 313 313 312 311 310 309 308 308
326 328 329 331 331 327 325 324 322 320 322 323 323 322 323 319 318 316 314 311 311 313 312 312 312 310 309 308 306 304 305 304
328 329 330 329 325 321 319 318 321 321 322 322 321 318 317 317 315 313 311 312 312 312 311 309 308 307 306 306 303 302 303 303
330 330 329 325 321 321 321 318 319 320 319 318 316 314 313 312 313 312 312 312 311 309 308 307 306 305 303 303 302 302 303 302
331 330 327 323 322 323 320 320 319 316 315 315 313 313 314 313 313 313 311 310 309 307 306 304 303 302 302 302 302 302 302 303
331 330 328 325 325 324 322 321 317 316 314 314 314 313 312 312 312 311 309 308 307 306 304 302 302 301 301 301 301 301 301 303
330 330 328 327 326 324 322 319 318 317 315 314 313 312 312 310 310 309 308 306 304 303 303 302 301 300 300 300 302 300 300 300
330 329 328 327 325 322 320 320 318 316 314 313 312 311 310 308 308 306 305 304 302 303 302 301 300 300 299 299 300 300 299 298
330 329 327 325 321 320 319 318 317 317 315 314 312 310 308 307 306 305 304 304 303 303 301 301 300 299 298 298 297 297 298 297
328 326 323 321 320 319 319 318 318 316 314 313 311 310 308 306 305 305 304 303 303 302 302 301 299 299 298 297 296 296 295 296
326 321 320 319 318 318 318 317 315 313 311 309 306 305 304 304 304 304 303 302 302 302 301 299 299 299 298 296 295 295 295 294
323 319 318 318 317 317 315 313 310 307 307 305 305 304 303 302 302 301 301 301 300 300 300 299 298 298 298 297 295 294 294 293
318 318 317 317 315 313 310 307 306 306 306 304 302 301 301 300 299 299 299 299 298 298 298 298 298 298 297 296 295 294 293 293

GFSFLT2_925_thetae_036.txt.gz
Theta_e
333 334 331 328 323 321 321 319 314 313 318 318 317 317 316 316 315 316 316 316 315 315 312 313 315 315 314 315 316 316 317 318
333 333 331 326 322 320 319 318 315 318 318 318 318 317 318 324 321 316 316 316 316 315 312 313 315 315 314 314 315 314 314 314
332 334 330 323 320 320 318 317 320 320 319 320 323 325 326 325 317 316 316 316 316 315 313 315 316 316 315 314 314 313 314 313
331 333 330 326 322 320 320 319 323 324 322 328 329 329 327 323 317 316 317 317 319 317 316 316 316 315 314 314 313 313 313 312
333 330 329 324 321 325 326 327 329 329 329 329 329 328 329 328 323 323 323 320 321 318 318 317 316 315 313 313 313 312 312 312
331 328 325 324 326 326 327 330 329 330 330 330 326 329 328 325 323 322 321 319 318 318 317 315 314 314 314 313 312 312 311 310
328 326 325 324 325 330 330 329 332 330 331 331 329 328 326 325 323 321 319 318 318 316 314 313 314 313 312 311 310 309 307 306
326 326 326 326 330 330 329 329 330 330 329 329 325 321 321 323 322 319 319 317 313 312 313 313 312 310 309 308 308 306 303 304
325 327 329 331 330 328 328 326 322 320 324 323 323 322 323 320 319 318 317 315 312 313 312 310 309 308 307 306 305 304 302 303
328 330 332 329 326 325 321 319 321 321 322 323 323 321 320 319 317 316 312 312 313 312 309 308 307 306 304 303 303 303 302 303
329 331 329 326 321 319 320 320 320 320 320 321 319 318 316 314 313 313 313 312 311 309 308 306 304 303 302 302 302 302 303 302
330 331 328 323 320 322 322 320 319 320 318 317 314 313 314 314 314 313 311 310 309 308 306 304 303 302 302 301 301 302 301 302
331 330 328 323 325 325 324 322 319 317 316 315 315 315 314 313 313 311 310 308 307 306 305 304 303 302 301 300 301 300 299 300
331 329 328 326 327 326 324 321 319 317 316 316 314 313 313 312 311 309 308 306 305 304 303 303 302 301 300 301 299 299 300 299
331 330 328 327 327 324 321 319 319 317 315 314 313 313 312 310 309 307 306 305 304 303 303 303 302 301 301 300 299 298 298 298
331 330 329 329 325 322 320 320 319 317 315 314 313 311 310 309 308 306 305 305 304 304 303 303 302 301 300 299 299 298 296 295
330 329 329 327 322 320 320 320 318 317 315 314 313 312 310 308 306 306 306 305 304 303 303 303 302 301 299 299 298 297 296 295
331 329 325 322 321 320 320 319 317 315 313 312 310 307 305 305 304 303 302 302 302 301 300 301 301 300 299 299 298 297 296 295
326 323 321 320 319 319 318 317 314 311 309 307 306 305 303 302 301 301 300 300 299 299 299 300 300 299 299 298 298 297 295 295
324 321 320 319 318 317 315 311 308 306 307 306 304 302 302 301 299 298 298 297 297 297 298 299 299 299 298 297 297 296 295 294

GFSFLT2_925_thetae_039.txt.gz
Theta_e
330 329 327 323 321 317 313 311 312 317 316 314 314 314 314 314 314 314 314 314 314 312 313 315 315 314 314 314 315 314 315 317
323 329 326 324 321 315 313 311 317 316 316 315 314 315 316 316 314 315 315 315 315 313 313 316 316 315 314 314 314 313 313 314
328 328 323 320 320 316 313 317 317 316 317 319 320 324 325 315 314 314 315 316 316 316 315 316 316 315 314 313 313 312 312 312
329 327 321 320 319 315 317 320 318 322 326 325 326 326 327 320 317 317 318 319 318 317 317 316 315 314 313 313 313 312 311 311
329 327 321 317 316 317 320 322 322 323 328 328 329 326 323 326 321 322 321 320 319 318 316 315 314 314 313 313 311 310 309 307
330 328 322 319 320 323 328 327 329 329 330 330 328 329 328 327 324 323 320 320 317 316 315 313 314 313 311 309 308 308 306 305
331 328 323 325 326 327 328 330 330 330 330 330 330 329 324 322 321 319 318 318 317 316 313 313 312 311 310 308 306 305 304 303
325 325 324 326 328 329 329 329 328 330 331 330 328 325 322 322 322 319 317 316 315 313 312 311 309 308 307 306 304 304 303 302
325 324 325 329 329 329 328 328 329 329 322 322 324 322 322 322 320 317 316 313 312 312 310 309 308 306 304 302 303 302 301 303
325 325 331 329 328 327 327 325 321 320 320 322 323 322 322 320 319 315 312 313 312 311 309 308 305 302 302 302 301 301 302 301
326 329 331 329 328 326 324 319 319 320 321 322 322 319 318 316 314 313 312 311 310 309 308 305 303 302 301 300 300 300 300 300
329 331 330 328 327 322 319 320 320 319 319 318 317 314 314 314 313 312 311 309 309 307 306 304 303 302 301 300 300 299 300 299
330 330 327 324 320 322 322 320 319 317 316 314 315 314 314 314 312 311 310 308 306 304 304 303 303 301 300 301 299 299 298 298
331 330 326 321 321 324 323 320 317 317 315 315 315 313 313 313 311 309 307 306 304 303 303 303 303 301 300 299 296 298 298 297
330 330 328 324 325 326 324 320 318 316 316 315 314 313 312 311 309 308 307 305 304 304 303 303 302 302 301 300 296 295 296 297
330 330 328 326 327 325 321 319 318 316 316 314 313 312 310 309 308 307 306 305 305 304 304 303 303 302 301 300 299 298 294 294
330 330 328 326 327 323 319 319 318 316 315 314 312 312 310 309 308 306 305 303 302 302 301 300 301 301 300 299 299 298 297 293
330 329 328 328 328 321 320 320 315 315 314 313 312 311 309 305 303 302 302 301 300 299 299 299 299 300 300 299 298 297 296 295
329 329 328 328 321 321 320 318 316 314 313 308 306 304 302 301 301 300 299 298 298 297 296 296 297 298 300 299 298 298 297 296
329 330 324 321 320 319 318 314 311 308 306 306 305 303 302 302 299 298 298 297 296 296 296 296 296 298 298 297 297 296 296 295

GFSFLT2_925_thetae_042.txt.gz
Theta_e
328 325 322 319 315 313 311 311 316 315 313 312 312 312 312 312 313 313 314 313 312 315 316 315 315 315 314 314 312 312 313 312
325 324 322 319 319 313 310 315 315 313 312 312 312 312 313 313 314 314 314 314 312 316 316 315 315 314 314 313 312 312 311 311
322 323 321 324 319 313 314 317 315 314 314 314 316 317 314 313 313 314 316 315 315 315 316 315 314 313 313 312 312 311 311 309
321 324 326 322 317 314 317 317 316 318 320 321 325 323 317 314 315 316 317 317 315 316 315 314 314 313 313 311 310 309 308 306
329 325 325 321 316 316 318 317 321 323 323 325 326 326 319 317 317 317 319 318 317 316 314 314 313 312 310 309 308 307 306 304
328 326 322 316 315 319 318 319 323 327 327 326 327 326 324 319 321 320 319 319 315 314 314 313 312 311 310 308 305 304 304 302
329 325 319 316 317 320 322 323 325 327 330 330 329 328 327 324 322 320 318 315 314 314 313 312 312 310 307 304 303 303 303 302
330 324 319 318 320 324 327 327 329 330 330 329 328 325 323 320 319 316 314 315 314 314 312 310 308 306 304 301 303 302 301 301
330 323 321 324 325 327 328 330 331 330 329 329 327 324 322 320 317 316 314 313 313 312 310 309 307 305 301 301 301 300 301 300
329 325 323 326 327 329 330 329 329 328 321 322 325 322 321 320 318 316 314 313 312 311 309 308 305 302 301 301 300 299 299 299
325 325 328 330 330 329 328 326 322 320 320 321 322 322 321 319 316 313 313 312 310 309 307 305 303 302 301 300 299 299 298 298
325 328 329 328 327 326 323 319 319 319 321 322 321 319 316 315 313 312 310 309 308 306 304 303 303 302 301 300 300 299 297 298
326 329 328 327 326 323 320 319 319 319 319 320 317 314 314 313 312 310 309 308 306 304 303 303 302 301 300 300 299 298 298 298
327 329 328 327 326 323 320 320 319 318 316 314 314 314 314 313 311 310 308 307 305 304 303 303 302 301 301 298 296 298 298 298
328 329 329 328 324 321 322 322 318 316 314 314 314 313 313 312 311 309 308 306 305 304 303 303 302 302 301 300 296 295 295 297
328 329 328 325 321 321 323 321 316 316 315 315 313 313 312 312 309 307 306 305 304 304 303 302 301 302 301 300 299 298 295 293
328 329 328 327 323 324 324 320 318 316 315 314 313 312 311 309 308 306 305 304 302 301 300 299 299 300 300 300 299 298 298 294
329 329 329 327 324 326 324 321 318 316 315 313 312 311 310 308 306 305 303 301 299 298 297 297 296 296 298 299 299 297 296 295
329 329 328 328 325 326 324 320 318 317 315 313 312 309 305 302 301 300 299 298 297 296 296 296 296 296 297 298 298 297 297 297
329 329 328 328 327 328 322 319 318 316 315 313 309 303 301 300 299 298 297 296 296 295 295 296 296 296 296 296 296 296 296 296

GFSFLT2_925_thetae_045.txt.gz
Theta_e
332 325 321 320 316 314 316 319 320 319 314 312 312 312 312 313 312 312 312 314 315 315 315 315 314 314 313 312 311 311 310 309
322 320 320 318 318 313 314 315 315 316 313 312 312 313 313 313 314 314 312 314 315 315 315 315 314 313 312 312 311 311 309 308
321 320 321 321 313 311 313 316 315 314 313 313 313 314 314 314 314 314 314 315 316 316 315 314 313 313 312 310 309 308 307 306
318 317 316 314 313 312 318 318 315 314 313 314 316 314 314 314 315 315 314 315 316 315 315 314 314 312 310 308 307 306 305 304
320 317 321 325 318 316 319 317 316 316 318 323 321 316 315 315 316 317 316 315 316 314 314 313 312 311 309 306 304 304 303 302
326 321 323 323 319 316 318 317 318 320 321 325 326 320 317 317 317 318 319 317 315 314 313 312 311 308 307 304 303 303 302 302
327 325 326 324 317 317 318 319 321 322 324 326 327 325 323 319 320 320 318 315 314 313 312 311 308 306 304 301 302 302 301 300
328 325 325 320 318 318 318 320 322 327 329 329 328 327 326 323 321 320 316 314 313 312 311 309 308 305 301 300 301 300 300 300
327 328 324 321 317 319 320 323 327 329 329 328 327 326 325 321 319 315 314 314 312 310 309 308 306 303 301 300 299 299 299 299
328 330 324 320 318 320 323 327 330 330 329 327 325 323 321 319 316 314 313 312 311 310 309 307 304 302 301 300 299 299 298 298
328 329 324 319 320 325 327 330 330 329 326 325 324 321 319 317 315 313 312 311 310 309 307 304 303 302 301 300 300 298 298 297
329 329 324 323 325 327 329 328 326 322 320 320 322 320 317 315 314 313 312 310 309 306 305 303 302 302 300 300 300 298 297 297
328 328 325 325 328 327 325 323 320 319 320 321 320 318 316 314 313 311 310 309 307 306 303 302 302 301 300 301 299 298 297 298
326 326 327 328 329 327 324 321 319 319 319 320 318 315 314 313 312 310 309 308 307 304 303 303 302 301 301 298 295 297 297 297
325 326 328 328 327 325 321 319 319 318 317 316 313 314 314 313 312 310 309 307 305 304 303 303 302 302 301 301 296 295 295 298
325 326 328 327 327 323 321 320 318 317 316 314 314 313 312 312 311 309 307 305 304 304 303 301 300 300 300 300 299 298 294 294
324 325 326 326 326 323 321 321 321 321 317 314 314 312 312 310 309 307 305 304 303 300 299 298 298 298 299 299 298 298 297 294
325 325 326 326 326 323 321 322 322 318 315 314 313 312 310 308 307 305 303 300 298 297 296 296 295 295 296 296 298 298 296 294
326 326 326 327 326 324 322 324 322 319 316 315 312 310 307 305 302 300 299 299 298 296 295 295 295 296 296 297 298 297 297 296
326 326 326 327 327 326 324 325 323 320 316 315 312 308 304 300 300 302 302 297 296 296 295 295 296 296 295 294 295 295 295 296

GFSFLT2_925_thetae_048.txt.gz
Theta_e
331 326 319 319 317 315 320 326 327 322 318 317 314 312 312 313 314 314 315 315 314 314 314 314 313 312 311 311 310 309 308 310
321 317 322 319 317 316 323 324 323 318 314 314 312 312 311 311 312 314 315 315 315 314 314 313 313 312 311 310 309 308 307 308
318 320 316 317 316 322 320 320 320 313 313 313 313 313 313 313 312 314 315 315 315 314 314 313 312 310 309 308 308 305 305 308
318 315 314 311 311 313 321 319 314 313 313 314 314 314 314 314 313 314 315 315 315 315 314 313 311 309 308 306 304 304 303 304
319 320 316 313 320 321 319 315 314 314 314 315 315 315 315 315 314 314 315 316 315 314 313 312 311 311 307 303 303 303 302 302
318 318 317 315 322 316 317 315 315 316 317 319 315 315 315 316 316 316 316 315 314 313 312 311 311 307 303 301 301 301 300 300
319 317 317 320 316 313 319 316 317 317 322 325 322 316 316 317 317 318 317 314 314 312 311 310 308 304 301 300 300 299 299 299
321 317 321 326 322 314 318 318 318 320 322 325 325 323 319 319 318 318 315 313 312 312 310 308 307 303 300 299 299 298 299 299
325 327 324 324 321 315 318 319 321 324 326 327 328 326 325 320 320 317 314 313 312 310 309 308 305 302 300 300 299 299 299 300
327 327 324 323 322 317 319 319 322 326 329 328 327 327 325 323 319 315 313 312 311 310 309 306 304 301 300 300 300 298 298 298
328 327 327 324 321 318 320 321 326 328 327 326 325 324 323 319 316 314 313 311 311 309 307 305 302 301 301 300 299 297 297 297
326 327 329 325 321 320 321 323 328 328 327 326 325 323 319 316 315 314 313 311 309 307 306 303 302 301 300 300 300 297 297 297
326 327 328 325 320 322 325 328 328 325 322 321 321 320 318 316 315 314 312 310 308 306 304 302 302 301 300 300 299 298 297 297
326 327 328 326 321 323 326 327 325 321 320 320 320 320 317 315 314 312 309 308 307 305 303 302 302 301 300 298 296 297 297 297
327 328 328 327 323 324 325 324 321 319 319 319 319 317 315 313 312 310 309 307 305 303 303 303 302 301 301 300 296 296 295 297
327 327 327 327 324 324 325 324 319 318 318 318 317 314 313 312 311 309 307 305 304 303 303 301 300 299 299 300 299 298 295 295
327 326 325 324 325 326 325 322 319 319 318 316 314 313 313 312 309 306 305 304 303 301 298 297 296 296 297 298 298 298 297 294
325 325 325 325 324 324 325 323 320 319 317 314 313 313 310 309 307 306 304 302 299 298 300 297 295 295 295 295 296 297 296 295
324 325 324 324 324 325 325 324 321 320 317 314 313 312 309 307 305 303 300 299 303 301 296 296 295 295 295 296 296 296 297 296
324 324 324 323 324 324 324 323 321 321 319 316 314 311 308 304 303 299 300 303 298 300 300 299 295 295 295 294 293 293 295 295

GFSFLT2_925_thetae_051.txt.gz
Theta_e
332 330 327 327 320 325 324 324 320 321 324 318 317 316 315 315 315 314 314 314 314 314 312 311 311 311 310 309 308 307 311 314
325 321 317 314 317 325 328 322 321 321 318 315 314 314 314 314 314 314 314 314 314 313 313 313 312 311 310 309 307 306 310 312
319 315 314 315 317 326 326 323 320 317 315 312 312 313 313 315 317 315 314 314 314 313 313 312 311 310 309 306 304 305 308 310
319 320 320 317 317 322 321 322 316 314 313 312 312 312 312 313 315 315 314 314 313 312 311 311 311 308 306 304 302 303 303 306
315 315 314 313 314 314 317 319 314 313 313 313 314 314 314 312 315 315 315 314 312 312 312 311 309 307 304 302 302 301 301 301
318 313 312 316 316 317 320 318 315 314 314 314 314 315 315 313 314 315 314 314 313 313 311 309 306 304 302 300 299 299 300 299
317 315 315 315 313 319 318 314 314 314 315 315 315 315 315 315 315 314 314 313 313 312 310 308 306 303 301 300 299 298 299 299
318 317 318 319 324 318 319 316 314 315 318 320 316 315 315 316 317 316 314 313 313 312 309 308 306 303 300 299 299 299 299 300
318 318 318 317 325 319 318 316 316 317 322 324 325 320 316 317 317 316 314 313 312 310 309 308 305 301 300 299 299 298 299 299
322 322 320 321 325 321 316 317 317 319 320 322 324 325 324 318 318 317 315 312 311 310 309 306 303 302 301 300 299 298 298 299
323 325 325 324 325 322 316 318 318 321 325 326 326 326 325 323 319 317 313 311 311 310 307 305 303 302 301 301 300 299 297 297
325 327 327 326 324 322 318 319 319 322 325 325 326 325 324 322 318 315 312 311 310 308 306 303 302 302 301 301 300 298 297 298
325 327 327 328 325 322 320 321 321 324 326 324 323 323 321 319 316 314 312 311 310 307 305 303 303 302 302 302 301 299 298 298
324 326 327 327 326 321 321 320 321 325 325 324 322 320 320 317 315 314 312 310 307 305 304 303 302 301 303 302 303 301 299 298
324 325 326 327 325 321 320 322 324 324 322 320 319 318 318 317 314 313 311 308 306 304 303 303 304 301 301 301 302 301 299 299
324 325 325 326 326 322 321 323 323 322 320 319 319 317 317 315 313 311 309 307 306 304 303 303 301 301 299 299 300 300 299 299
325 324 325 326 326 324 322 323 323 321 321 319 317 316 314 313 311 310 307 306 305 304 302 299 300 298 298 299 299 298 298 299
326 325 325 325 325 324 324 322 322 321 319 317 315 315 313 312 310 308 307 306 304 300 299 301 296 295 296 297 297 297 297 297
325 325 325 325 324 324 324 324 321 322 319 318 315 312 311 311 310 307 306 304 301 300 300 300 299 297 296 297 297 296 296 296
325 325 326 325 324 324 324 324 321 320 320 320 316 313 312 310 308 307 306 304 300 301 303 299 297 295 295 295 296 295 295 295

GFSFLT2_925_thetae_054.txt.gz
Theta_e
331 321 327 328 327 326 326 329 327 326 325 320 319 317 315 315 314 315 315 314 314 314 312 311 310 309 308 307 306 310 314 315
330 329 327 326 326 326 323 327 328 325 321 319 318 317 315 314 314 314 314 313 313 312 311 311 310 309 307 305 307 310 312 313
326 324 322 317 315 321 326 324 325 322 318 316 317 320 319 318 318 314 314 313 313 313 312 312 310 308 305 304 307 308 310 311
321 317 314 319 321 318 320 320 324 320 317 317 319 320 320 321 316 314 313 314 313 312 311 311 311 310 308 306 306 306 306 306
317 316 318 317 319 318 317 319 321 319 315 320 320 320 320 320 318 317 315 313 312 311 312 312 310 309 308 307 305 304 304 304
317 318 316 316 316 313 311 317 321 318 316 322 321 319 319 320 319 319 317 316 314 313 312 310 309 308 307 306 304 304 304 303
316 316 315 317 317 316 317 321 314 319 321 321 320 321 320 319 320 318 317 315 314 313 311 310 309 308 306 305 304 304 305 305
313 316 317 317 316 317 319 320 321 321 320 321 321 321 321 320 319 318 316 315 314 313 312 311 309 308 306 304 304 303 305 306
314 315 318 319 319 321 322 320 320 320 321 325 322 319 321 320 319 316 315 315 314 312 311 310 309 307 305 304 303 303 304 305
318 318 320 321 324 323 322 321 320 320 324 324 321 323 321 320 319 319 317 315 313 311 311 312 310 308 306 304 303 302 302 302
320 320 320 323 325 325 322 323 322 321 324 325 325 327 325 321 320 319 316 314 311 310 312 312 309 307 305 305 304 303 302 300
320 322 323 325 326 326 323 321 322 324 326 325 325 326 326 324 322 320 314 312 310 311 311 310 309 307 304 305 306 304 302 301
324 324 325 327 326 325 323 321 322 324 326 327 325 325 324 324 322 318 314 312 312 310 311 310 308 307 308 309 307 305 303 301
324 325 326 327 326 325 323 321 322 324 325 323 323 322 321 321 320 317 315 314 310 309 310 310 309 307 309 308 311 308 304 302
326 327 328 329 327 326 323 323 324 324 324 324 324 321 319 318 318 317 316 312 309 310 311 310 310 307 306 307 310 310 306 304
325 325 327 329 329 326 323 322 322 323 324 323 321 320 318 318 317 316 314 311 311 311 310 309 309 307 306 304 303 303 306 306
326 326 326 328 329 329 326 323 322 325 326 324 321 319 319 316 315 314 312 313 312 310 309 308 305 304 303 300 303 303 302 302
330 328 327 328 328 329 329 327 326 327 325 324 323 321 318 315 312 312 311 311 311 310 308 304 303 301 298 299 303 302 301 299
332 331 329 328 329 329 329 329 328 327 326 324 323 320 315 313 312 312 312 311 308 307 304 303 301 298 298 301 299 298 298 298
332 331 331 330 329 329 329 328 328 327 325 323 323 318 316 313 312 311 309 307 305 303 303 300 300 299 299 298 298 298 298 297

GFSFLT2_925_thetae_057.txt.gz
Theta_e
333 329 328 329 329 328 328 329 330 329 325 324 323 324 327 328 327 323 316 316 315 313 311 310 309 308 306 305 313 315 317 318
329 325 328 327 327 326 325 326 329 328 323 321 319 319 320 320 318 316 316 315 313 311 311 310 309 307 305 309 310 312 314 315
326 326 324 321 320 322 322 325 327 325 321 319 318 316 316 319 318 314 314 313 312 312 312 311 309 306 306 307 309 310 311 313
326 324 325 324 326 323 321 322 324 324 320 321 320 320 320 321 316 314 313 313 313 313 313 313 313 312 310 309 309 308 308 309
320 318 317 315 315 314 315 319 323 320 320 321 320 321 322 320 318 316 313 313 312 312 314 315 314 313 311 309 308 307 307 307
317 318 319 322 322 321 322 322 322 320 321 321 322 322 322 321 318 318 317 317 315 317 316 315 313 311 310 309 307 307 307 307
318 319 319 316 313 313 312 316 315 314 319 322 320 321 322 320 320 320 319 319 318 317 316 314 313 311 310 308 307 307 308 308
316 316 316 315 314 314 316 317 317 319 321 322 321 322 321 321 322 321 320 319 318 317 317 315 314 312 309 307 306 306 307 308
316 315 316 316 317 316 315 319 321 321 321 321 322 323 324 322 321 321 320 319 318 317 316 315 314 311 309 307 306 306 306 307
315 316 316 316 316 315 320 321 319 317 319 323 324 323 323 322 322 321 320 319 318 317 316 316 315 312 310 308 307 306 305 305
317 318 319 319 318 319 322 322 321 320 321 325 327 324 324 323 322 322 321 320 318 315 316 316 315 312 310 309 309 307 306 304
320 320 319 321 323 323 322 322 323 320 321 325 327 328 329 325 324 324 322 319 316 315 316 314 315 312 308 308 310 309 307 306
322 321 322 322 322 322 322 321 321 322 322 326 329 327 328 328 327 325 322 318 317 315 314 313 312 311 311 312 312 311 309 306
322 321 321 322 321 321 321 321 320 322 323 325 328 328 327 327 327 325 322 319 317 315 313 313 313 312 312 312 314 313 308 307
323 324 324 324 324 323 323 321 320 321 323 325 327 325 324 324 324 323 321 319 318 315 314 312 313 312 311 312 314 314 310 309
325 325 325 326 327 326 325 323 322 321 324 325 326 323 322 322 322 321 321 320 317 314 312 313 314 313 311 310 307 306 308 310
326 327 327 328 328 327 326 325 323 323 324 325 326 323 322 323 320 320 320 318 314 313 313 314 313 312 308 305 304 306 307 307
327 327 327 327 327 329 328 327 326 323 324 329 326 324 322 322 321 320 319 315 312 313 314 313 310 306 305 302 301 305 306 305
329 328 328 328 328 329 329 329 329 328 327 329 327 325 324 322 320 316 315 313 313 314 313 311 306 305 301 300 301 302 301 301
332 331 331 329 329 330 330 331 331 331 329 329 328 327 325 321 317 315 313 313 313 312 310 306 303 301 301 300 299 299 301 301

GFSFLT2_925_thetae_060.txt.gz
Theta_e
327 332 333 333 332 329 329 329 330 331 333 334 333 332 333 333 328 318 316 315 313 310 309 308 307 305 310 315 316 317 320 319
329 326 325 326 325 323 325 330 330 330 330 333 334 334 333 329 320 316 315 313 311 310 310 309 306 308 310 311 312 313 318 318
329 327 327 324 320 319 322 323 327 327 325 327 329 329 326 322 317 316 314 312 312 312 311 310 309 308 308 309 310 310 315 316
327 326 323 323 321 316 316 318 323 323 321 320 319 322 320 319 316 315 313 313 313 313 314 313 313 311 310 309 308 308 310 312
326 325 322 320 322 320 320 319 320 320 321 320 319 322 316 314 314 313 313 313 313 314 315 315 314 312 310 309 308 307 308 308
322 321 321 321 322 317 316 319 321 321 321 323 322 321 318 314 314 313 313 314 314 316 316 315 313 311 310 308 307 307 308 307
319 319 318 319 317 316 317 319 320 321 320 322 321 321 321 316 317 317 316 317 316 317 316 314 313 311 309 307 307 307 308 310
319 319 318 317 318 319 317 316 315 316 321 321 320 320 322 318 320 319 319 319 318 318 316 315 314 312 309 307 307 307 308 309
317 316 317 319 318 315 313 312 313 313 321 322 321 321 321 322 323 322 321 320 319 318 317 315 314 312 310 307 307 307 307 307
316 317 316 316 316 313 314 315 313 317 322 321 320 323 322 322 322 321 321 319 318 318 317 316 315 313 310 308 307 306 306 306
317 316 315 314 313 313 312 315 318 320 321 322 323 322 323 321 323 322 321 319 319 318 317 317 316 314 311 309 309 307 307 306
318 317 315 315 315 315 317 320 321 320 319 322 325 325 322 323 323 322 321 320 320 318 316 316 316 315 312 309 310 309 308 307
319 319 320 318 316 319 320 323 323 321 321 320 323 324 326 326 324 324 323 322 320 317 316 316 315 313 311 310 310 311 310 308
320 321 320 321 321 321 323 322 322 322 320 321 324 327 326 326 326 326 325 322 319 317 315 315 314 312 312 312 312 313 311 310
322 322 321 322 324 323 323 321 321 320 323 322 325 325 326 327 327 326 325 324 321 317 316 314 313 313 312 313 313 312 309 309
323 322 323 323 322 323 322 323 323 322 323 324 326 325 326 326 325 324 323 323 321 319 317 314 314 313 312 311 311 307 307 308
323 323 323 324 324 325 325 324 322 321 321 324 326 327 326 324 323 322 321 322 321 320 317 315 313 314 312 310 308 306 306 307
326 326 326 326 325 325 328 328 326 324 324 324 326 326 325 323 322 322 322 322 321 318 316 314 312 313 309 308 306 304 305 304
328 327 328 328 328 330 329 327 329 325 325 326 326 326 325 324 322 321 321 320 320 318 313 312 311 307 307 304 301 302 302 303
328 328 328 328 329 329 329 330 328 329 327 327 326 327 326 324 323 322 320 319 318 316 313 312 312 308 304 301 301 302 302 301

GFSFLT2_925_thetae_063.txt.gz
Theta_e
332 324 328 327 334 331 330 329 328 330 329 331 333 333 331 324 318 315 314 312 309 308 306 304 312 315 315 313 318 318 317 312
328 329 327 323 324 322 323 324 329 331 331 332 333 333 330 321 316 314 312 310 309 308 306 309 312 312 312 311 319 318 317 313
328 327 325 324 323 321 320 324 330 329 331 331 332 331 326 318 315 314 311 311 311 309 309 309 309 309 310 309 315 316 315 311
326 326 325 323 320 320 319 323 326 329 329 329 329 328 320 316 315 312 313 314 313 312 312 312 311 310 309 308 310 311 311 308
326 324 322 321 320 319 318 317 320 325 325 325 325 321 317 315 314 313 313 314 314 314 315 312 311 310 308 307 307 308 307 307
324 323 320 320 319 318 316 318 322 321 320 321 319 317 316 315 313 313 314 314 316 316 315 314 312 310 307 307 307 307 307 307
321 322 320 318 317 317 321 321 321 321 320 322 320 314 314 314 314 314 315 315 316 317 316 314 311 309 308 307 307 308 309 309
320 320 321 320 319 319 316 319 321 322 320 320 322 320 315 315 315 315 316 317 317 317 317 314 312 312 308 307 307 307 308 310
317 319 319 318 316 318 320 321 319 318 317 321 322 321 318 317 320 319 319 319 318 318 316 315 313 312 310 307 306 307 307 308
317 317 316 316 316 318 319 317 315 317 315 320 320 320 320 321 323 322 321 319 319 318 317 315 314 312 310 307 307 306 306 306
318 317 316 315 314 316 314 314 313 314 319 321 319 321 322 321 322 322 322 320 319 318 317 316 315 314 310 308 307 307 306 306
317 318 317 316 316 315 314 312 313 314 317 321 320 319 322 323 322 323 322 320 319 319 317 317 316 316 312 311 309 309 307 307
316 316 316 316 316 314 314 315 316 315 318 319 321 322 322 323 322 323 322 322 320 319 319 317 316 316 314 310 309 310 309 307
317 316 315 315 315 314 314 316 318 316 317 320 321 324 324 324 322 323 323 323 321 320 319 317 316 316 312 311 311 311 310 309
318 316 315 315 314 314 317 318 321 322 322 321 321 321 323 324 324 322 323 324 322 321 320 316 316 315 313 312 311 311 309 310
318 319 318 316 317 317 319 321 321 321 319 320 320 323 324 326 325 324 323 324 324 323 319 317 316 314 314 312 309 307 306 306
319 319 320 318 320 322 322 322 321 321 320 321 322 323 324 325 325 326 325 325 324 322 319 317 316 315 314 312 309 309 308 306
321 321 320 319 320 322 323 322 322 321 321 320 321 322 324 325 325 325 325 323 322 322 320 319 316 316 314 313 310 306 305 304
321 321 321 320 322 322 322 325 323 323 322 322 324 325 326 326 326 324 323 322 322 322 320 317 316 313 312 311 308 306 302 303
323 322 322 322 322 323 324 324 327 326 324 322 323 324 325 325 325 324 322 321 321 320 318 316 313 312 312 310 308 304 304 305

GFSFLT2_925_thetae_066.txt.gz
Theta_e
333 326 327 322 320 334 330 323 330 333 333 332 330 326 323 318 314 313 309 308 306 306 312 313 310 315 319 318 317 314 310 315
328 326 325 322 321 324 326 324 329 332 331 332 329 325 321 315 313 310 309 308 306 306 312 311 310 310 318 319 317 314 310 312
327 327 327 323 322 321 321 324 328 331 332 332 329 324 317 314 312 310 309 308 307 310 310 310 309 308 316 318 317 313 310 311
326 326 324 323 323 321 317 318 325 329 330 330 329 320 315 313 311 311 310 310 310 310 310 309 309 308 311 315 313 311 309 311
324 323 324 323 321 320 322 321 322 324 327 329 327 317 315 313 311 314 312 313 313 314 313 311 309 307 307 310 310 309 308 310
324 323 322 322 322 321 319 326 327 328 327 327 322 316 315 312 313 314 314 315 315 315 314 312 309 308 307 307 308 307 307 308
323 322 321 321 320 322 325 326 327 327 326 325 318 315 314 313 313 315 315 316 316 316 314 311 309 307 307 307 307 307 307 309
321 321 320 319 318 319 320 321 322 322 321 319 316 315 314 313 314 315 315 316 317 317 316 314 311 309 307 307 307 308 309 308
319 320 319 319 319 316 321 322 320 321 320 316 315 314 314 315 314 315 316 316 317 317 316 314 313 311 308 306 307 307 308 309
320 319 319 318 319 321 321 322 321 321 322 321 320 317 315 315 316 317 317 319 317 317 317 315 314 312 310 307 307 307 307 307
318 318 318 318 318 319 321 318 317 320 320 321 321 320 319 319 321 322 320 320 318 318 317 316 314 313 311 308 307 307 307 306
317 316 317 318 318 316 319 317 318 317 315 315 318 319 321 322 322 322 322 321 319 318 318 316 316 315 313 309 308 307 307 307
317 316 315 316 317 318 316 315 314 314 317 319 321 320 321 323 321 321 321 321 320 319 318 317 317 316 315 309 308 308 308 307
316 316 315 315 316 315 315 314 313 314 315 318 319 320 320 321 322 322 322 322 321 320 319 318 317 316 314 311 309 309 309 307
316 317 316 315 315 315 314 313 313 313 313 313 315 320 321 322 322 322 321 323 322 321 320 319 318 316 315 312 311 312 309 310
316 316 316 316 316 315 314 314 315 315 315 315 315 319 322 322 322 323 322 322 323 323 322 320 319 316 314 313 311 308 307 309
317 316 315 315 316 315 314 315 316 318 319 317 316 318 321 322 323 323 323 324 323 323 323 320 320 316 315 312 310 309 309 307
317 316 315 315 315 314 314 316 319 320 320 320 321 320 319 320 323 324 325 325 324 324 324 322 320 317 315 315 312 310 307 307
317 317 317 316 315 316 316 318 319 320 321 320 319 319 321 322 325 325 325 325 325 324 322 321 319 317 316 314 312 312 311 309
317 317 317 317 317 317 318 319 321 321 321 320 320 320 320 320 321 323 324 325 323 322 321 321 320 317 315 313 313 311 309 306

GFSFLT2_925_thetae_072.txt.gz
Theta_e
331 330 331 328 327 326 326 330 328 327 331 330 329 327 328 328 327 322 316 319 320 321 319 315 310 310 310 312 314 315 316 317
329 328 326 327 327 325 324 329 330 324 327 330 328 326 325 324 322 314 315 320 320 320 318 317 313 312 310 312 313 315 316 317
326 327 327 325 324 324 322 328 327 326 330 328 327 323 321 317 315 313 311 315 320 320 318 317 316 313 311 309 312 315 316 316
328 328 327 325 323 327 328 330 327 324 326 325 322 316 314 309 309 312 310 310 312 318 318 317 316 314 311 309 310 313 315 316
327 326 324 322 322 326 327 328 325 327 321 323 315 315 310 307 309 309 309 309 310 314 317 317 316 313 311 309 309 311 313 315
325 324 323 322 321 322 324 327 327 322 320 321 315 311 308 307 308 309 310 309 309 310 311 314 315 312 310 308 309 309 312 314
324 323 321 322 320 320 323 325 325 323 323 319 313 309 308 306 308 310 310 309 309 308 309 310 312 311 309 308 308 309 311 313
323 322 323 322 320 320 321 323 324 323 322 316 311 310 308 308 310 312 312 311 311 309 309 308 310 309 308 308 308 309 310 311
323 322 322 321 320 320 322 324 324 324 322 316 311 311 310 313 312 314 314 314 312 313 308 307 306 307 307 307 307 308 309 310
322 322 322 321 320 320 322 323 324 323 323 316 312 316 316 313 313 316 316 315 314 314 310 308 307 307 306 307 307 308 309 309
320 321 321 321 320 320 321 322 323 323 319 318 315 315 313 314 315 316 316 316 316 316 313 312 310 307 307 306 307 307 307 308
320 320 320 320 320 321 322 323 323 323 317 316 315 313 313 313 314 314 315 316 317 317 315 314 314 313 310 307 306 306 307 307
319 319 320 320 320 320 321 322 321 321 321 317 315 314 315 314 314 315 315 317 318 317 316 315 316 314 312 310 309 307 306 306
318 319 319 319 319 318 319 321 320 318 318 316 315 314 314 314 315 318 318 319 319 317 317 317 316 315 313 311 309 310 309 307
318 318 318 319 318 318 319 320 319 321 320 319 318 317 316 316 319 320 321 322 321 320 318 317 317 316 315 314 311 310 309 309
317 317 317 317 318 318 316 316 317 317 320 318 317 320 319 319 319 320 321 321 321 320 319 319 318 317 315 314 313 312 312 312
316 316 317 316 316 319 318 317 316 316 315 316 317 317 317 317 318 319 320 320 322 322 321 320 319 318 317 315 312 311 311 311
316 316 316 316 316 316 318 317 317 315 314 314 314 314 315 316 317 316 317 320 321 322 322 322 321 321 319 317 317 314 310 309
315 316 316 315 315 315 316 316 316 316 316 314 314 313 313 314 315 315 314 315 319 321 322 323 323 322 320 319 317 316 316 313
315 315 315 316 315 315 315 315 315 315 315 315 314 314 314 314 313 314 314 316 319 319 320 321 322 322 321 320 318 316 314 314

GFSFLT2_925_thetae_075.txt.gz
Theta_e
333 333 329 327 329 330 329 327 333 329 330 332 330 329 328 329 329 327 325 327 328 326 322 312 311 313 315 316 316 318 319 319
329 329 330 330 329 328 327 327 330 332 330 331 329 330 329 329 328 323 324 324 323 321 312 309 310 313 315 316 316 317 318 318
328 326 326 326 327 327 328 324 328 330 333 330 329 330 329 328 324 318 321 322 320 315 311 312 311 312 313 314 315 317 317 318
326 326 326 326 325 323 324 324 329 330 330 328 328 327 327 325 317 320 322 320 318 315 314 312 315 316 316 314 316 317 317 318
328 328 328 327 325 325 327 323 328 329 328 327 325 324 321 317 314 319 322 320 320 317 315 317 316 315 315 315 316 316 317 317
328 326 325 324 322 326 327 327 327 326 324 324 322 318 316 314 311 312 319 322 321 318 317 315 311 308 310 309 315 316 316 316
326 325 323 323 321 326 326 324 325 324 323 321 316 311 311 313 311 310 311 315 318 317 317 314 311 308 308 309 314 315 316 316
325 324 322 322 321 324 325 323 322 319 321 317 312 308 307 309 309 309 310 312 314 314 315 314 314 309 308 311 312 314 315 316
325 323 322 321 320 322 324 324 320 319 320 315 309 307 306 309 310 309 309 309 310 310 312 314 310 310 309 309 312 313 314 315
322 323 322 321 320 321 323 324 321 320 320 313 308 307 308 309 311 310 310 309 309 308 312 310 308 308 311 312 312 312 314 314
322 322 321 321 320 320 323 323 322 321 317 311 309 307 308 311 313 313 313 312 311 307 307 307 306 307 308 307 308 309 310 312
321 321 321 320 320 320 322 323 323 322 317 312 309 310 312 313 315 316 316 316 313 309 308 308 308 307 307 306 307 307 308 308
320 320 320 320 320 321 322 322 322 321 317 314 316 315 313 316 317 316 316 316 316 313 312 312 311 309 310 309 307 306 306 306
319 320 320 320 320 321 320 321 321 321 318 316 314 315 315 316 315 314 315 315 316 315 315 314 315 313 314 314 317 314 309 307
318 319 319 319 319 319 319 320 320 320 318 317 315 313 315 315 314 314 314 315 316 317 317 317 317 316 314 317 315 318 312 310
319 318 319 319 319 318 319 318 318 319 317 317 316 314 314 314 314 314 316 319 319 320 320 319 317 317 314 315 315 315 319 318
318 318 318 318 319 319 319 319 318 319 318 318 315 315 315 315 315 316 318 317 319 320 321 320 318 317 316 317 314 312 312 315
317 318 318 317 318 318 318 318 319 317 316 316 316 317 316 317 317 316 319 319 319 320 320 321 320 319 319 317 317 318 316 314
315 317 317 317 316 317 317 317 317 316 317 317 316 316 317 318 318 317 317 317 317 318 319 320 320 320 320 319 317 317 317 316
314 316 317 317 316 316 317 317 316 316 315 315 315 315 316 316 315 315 315 315 315 315 316 319 320 320 320 319 320 320 317 314

GFSFLT2_925_thetae_078.txt.gz
Theta_e
336 336 334 334 333 333 333 334 334 334 332 333 332 333 332 330 329 330 330 328 327 322 319 318 317 318 318 318 319 321 321 320
334 335 333 331 331 330 331 332 332 329 326 325 330 331 330 331 332 331 330 330 328 321 315 313 314 315 316 317 319 319 319 319
330 331 331 330 329 328 326 327 329 329 328 327 329 330 329 330 329 327 327 327 324 316 311 312 314 316 316 316 318 318 319 319
328 329 329 328 328 328 329 329 329 329 329 327 328 329 329 329 325 327 325 323 318 310 311 312 315 316 316 316 318 319 319 319
327 327 327 328 327 326 326 326 326 327 329 328 326 327 327 327 326 327 325 320 317 316 315 317 316 316 315 317 318 319 319 319
328 327 325 325 325 325 326 327 327 327 328 326 326 325 325 326 327 325 323 321 320 319 318 318 318 317 317 317 318 318 319 318
330 328 327 327 326 326 327 327 327 327 324 325 325 322 320 322 325 326 324 323 322 321 320 318 317 316 317 317 317 318 318 318
329 325 324 324 325 325 325 325 323 324 323 323 323 321 317 317 320 323 324 324 323 321 319 316 315 315 316 316 317 318 318 318
326 326 323 322 323 324 324 323 321 320 320 320 317 314 315 314 315 315 318 321 320 319 318 316 315 314 315 316 316 317 318 319
325 325 323 323 322 323 323 323 322 321 320 317 315 314 313 312 311 311 313 315 317 318 317 316 315 314 314 315 315 316 317 317
325 323 323 322 322 322 323 320 320 320 315 312 310 310 310 310 310 310 311 312 312 315 315 314 314 313 314 314 314 315 316 316
325 322 322 321 321 322 322 320 318 319 316 312 309 311 310 310 312 314 313 312 312 312 312 312 312 312 311 312 313 313 314 315
323 322 321 321 321 322 322 321 318 318 315 314 310 312 312 315 317 316 315 315 315 313 313 314 313 312 311 312 312 312 312 312
322 320 320 321 323 323 322 320 320 317 314 311 310 311 309 313 316 316 317 318 318 315 316 317 318 314 316 318 319 315 312 311
321 321 320 320 322 322 321 321 321 317 314 311 309 310 312 314 316 316 316 316 318 316 316 317 319 316 315 319 320 321 317 315
320 321 320 320 321 322 321 322 321 320 315 315 315 315 315 316 316 315 314 318 319 320 319 318 320 320 317 317 319 319 321 323
321 322 321 320 320 321 321 321 321 320 318 316 314 314 315 316 315 315 317 320 320 321 321 320 321 321 321 321 318 316 316 317
321 321 321 322 320 320 321 320 320 320 319 318 317 314 314 315 315 315 315 317 320 322 323 323 323 322 321 321 319 319 320 321
320 321 321 321 322 320 321 320 319 319 319 318 317 316 315 315 314 315 315 315 318 321 319 320 322 322 323 322 321 321 322 322
319 321 322 322 321 322 321 321 320 320 321 321 318 317 317 316 315 315 315 317 319 319 319 320 323 322 322 322 322 322 322 321

GFSFLT2_925_thetae_081.txt.gz
Theta_e
340 339 337 334 330 328 326 329 327 333 333 332 333 333 335 333 330 330 330 328 326 326 324 324 322 322 321 321 322 322 321 322
340 337 335 332 330 327 328 330 332 333 333 333 331 333 333 330 330 330 328 326 323 319 321 322 319 319 318 320 321 321 321 321
334 334 335 333 331 330 330 331 332 333 332 332 329 330 330 330 330 330 328 325 320 317 318 317 317 318 317 320 320 320 320 320
331 331 332 331 332 332 331 332 333 332 330 329 330 329 329 330 330 331 329 324 317 313 312 313 316 317 317 319 321 320 320 320
329 330 331 332 330 331 331 331 332 332 332 329 327 327 327 326 330 330 328 322 318 316 313 316 317 316 318 320 320 321 320 320
329 328 329 331 330 329 331 330 331 331 330 330 329 327 324 327 328 327 326 319 318 316 317 318 318 317 319 320 320 320 320 319
331 330 328 327 328 328 327 331 331 330 328 328 327 326 326 325 323 326 323 321 320 318 320 319 319 318 319 319 320 320 320 319
331 330 329 328 328 329 327 327 328 329 328 327 327 324 325 320 322 324 323 322 321 320 321 319 319 318 319 319 319 320 320 320
329 329 325 327 326 325 326 326 324 326 325 324 323 322 323 323 323 324 325 323 322 322 320 317 317 318 318 319 319 320 320 320
329 328 327 326 325 324 324 322 321 320 319 319 321 320 321 323 322 323 324 324 322 320 318 317 316 317 317 318 319 319 320 320
327 328 326 326 325 324 322 321 320 320 321 320 316 316 317 317 318 319 321 321 320 320 318 317 317 316 317 317 318 318 319 319
326 326 324 323 322 323 322 320 318 317 316 314 314 313 313 315 315 315 316 317 316 317 316 316 316 316 315 316 317 317 318 318
326 324 323 322 322 322 321 319 318 316 314 314 314 315 314 314 314 313 313 313 314 315 315 315 315 314 314 314 315 315 316 317
325 325 323 321 322 322 320 320 317 315 314 312 313 313 313 314 314 316 314 314 314 315 315 316 316 316 316 317 318 316 315 315
324 324 323 323 322 322 320 318 318 316 314 311 312 313 314 315 318 316 313 318 319 319 319 320 321 318 319 321 324 325 321 316
323 323 323 323 323 322 320 318 317 317 315 314 314 313 315 316 317 316 318 321 320 320 321 320 320 321 315 317 321 322 322 322
323 323 322 322 322 322 321 320 318 318 316 314 314 313 314 315 315 318 318 318 321 320 318 320 319 321 321 320 320 321 321 321
323 324 323 322 323 323 323 321 321 319 317 316 315 313 314 316 316 316 315 318 320 320 320 321 321 322 321 321 322 321 321 320
323 324 323 323 322 322 323 323 321 320 317 316 316 316 316 315 316 316 315 316 320 320 320 319 321 321 320 320 319 320 320 321
324 324 324 323 322 322 323 324 323 321 319 317 317 316 315 315 316 315 315 316 316 320 320 320 323 321 322 320 320 322 322 322

GFSFLT2_925_thetae_084.txt.gz
Theta_e
339 341 339 336 332 332 330 328 327 324 326 325 334 335 335 335 334 333 333 331 329 326 324 323 321 324 323 323 323 322 322 322
339 339 339 335 332 331 328 327 327 327 326 329 334 331 333 334 332 331 330 329 326 325 324 322 320 321 322 322 321 322 321 321
336 337 335 334 333 331 329 325 329 325 326 333 332 331 333 331 331 330 328 326 324 324 324 321 320 320 321 321 321 321 321 320
332 335 336 333 331 330 329 328 329 329 325 331 331 330 330 329 330 329 326 322 322 322 321 317 317 316 321 320 321 321 320 319
330 332 333 333 333 332 332 332 331 332 331 331 329 329 327 328 327 328 325 320 320 318 316 316 313 318 319 320 321 321 320 319
331 330 331 332 331 330 331 331 331 332 331 330 329 328 327 325 326 328 324 320 316 313 313 318 315 318 320 322 321 321 319 318
331 330 330 330 330 329 330 330 330 330 331 330 328 328 327 325 326 327 323 317 317 310 318 317 315 317 320 320 321 320 319 317
332 331 330 329 328 328 329 329 330 331 330 331 329 327 327 325 327 324 321 317 313 317 320 318 318 318 320 320 321 320 319 317
332 330 329 328 329 328 328 327 328 329 329 330 329 328 326 326 325 323 322 320 316 320 320 320 319 319 319 319 320 321 319 319
331 329 327 327 325 325 324 325 325 325 326 328 328 326 325 324 323 320 324 323 320 321 320 318 319 319 319 319 320 321 321 319
330 327 327 326 325 324 323 322 321 322 325 326 325 324 321 320 320 322 324 323 322 319 317 318 317 318 318 319 320 320 321 319
329 327 326 326 325 323 320 320 318 318 317 317 319 321 319 319 322 322 322 322 321 319 318 317 317 317 318 318 319 320 320 320
327 327 326 324 323 322 320 319 318 318 319 321 321 320 319 320 319 321 321 320 319 318 316 316 316 316 316 317 317 318 318 318
327 326 325 323 323 322 320 319 318 317 317 315 315 316 317 315 315 318 318 318 317 316 315 316 315 316 317 316 316 316 316 317
326 325 323 322 323 322 320 318 316 314 314 316 316 315 314 315 315 315 315 314 313 314 314 315 316 315 316 318 319 319 316 316
325 324 323 323 323 321 319 317 316 314 313 314 314 314 315 314 314 313 316 315 315 314 316 315 319 317 316 319 321 321 320 319
325 323 323 323 323 321 319 318 315 315 313 312 313 314 315 315 316 315 316 318 317 317 318 319 321 320 318 317 317 321 321 321
324 323 323 323 323 321 320 318 316 315 313 312 313 315 316 314 317 318 316 318 319 319 320 320 320 320 321 320 320 320 322 320
324 323 323 323 323 322 321 319 317 316 315 314 313 315 315 316 316 318 316 317 319 320 319 319 318 318 320 319 320 321 321 321
325 324 323 322 324 323 323 320 318 317 316 315 314 314 314 315 316 316 315 316 318 318 318 318 318 317 319 319 319 320 320 319

GFSFLT2_925_thetae_087.txt.gz
Theta_e
339 339 339 337 337 336 337 336 335 330 328 326 325 326 334 335 333 333 334 333 330 328 328 327 326 327 324 323 323 323 322 321
336 338 337 336 333 333 333 329 328 325 324 325 324 325 332 333 333 333 333 331 327 327 325 325 325 323 322 322 322 322 321 319
336 338 336 336 333 331 330 327 326 325 326 327 326 327 333 332 331 333 332 329 324 324 322 323 323 322 321 322 320 321 320 318
333 335 335 334 333 331 329 329 326 329 327 330 329 332 330 329 329 331 330 327 323 323 321 322 321 322 321 321 320 320 320 318
331 335 334 333 332 330 329 329 327 329 326 327 330 330 330 327 328 329 327 325 324 323 320 320 320 320 320 320 320 320 318 317
330 333 332 333 332 331 331 331 330 331 328 330 328 330 330 329 328 327 325 322 322 322 318 318 317 320 320 320 320 319 317 317
331 330 332 332 331 331 331 331 331 331 331 329 329 329 327 328 327 327 323 319 319 317 315 313 318 319 320 321 320 319 317 317
330 330 330 331 330 329 329 330 330 331 331 331 328 329 327 326 327 326 322 314 315 314 316 314 319 319 321 321 320 319 317 317
331 330 329 329 328 329 329 329 329 330 330 330 329 328 327 324 327 326 321 311 310 317 318 313 316 318 320 321 320 319 317 316
331 331 328 328 329 329 328 327 327 329 330 330 329 328 326 325 327 325 319 311 311 318 318 317 317 319 320 320 319 318 317 315
331 329 327 326 327 325 324 323 324 324 325 330 330 328 327 326 326 322 319 312 316 320 320 319 319 319 319 320 320 319 318 317
330 328 326 327 325 323 322 323 323 323 324 326 327 328 327 325 324 323 320 316 317 320 319 319 319 319 319 320 320 320 319 318
328 327 326 325 323 322 319 319 319 319 320 324 326 326 325 322 322 322 322 321 320 319 318 318 319 318 319 319 319 320 320 319
327 326 326 324 322 321 320 318 317 317 317 319 321 321 321 321 321 320 321 321 319 317 317 316 318 317 317 317 315 317 319 319
327 326 324 323 322 320 319 318 317 317 316 318 319 320 320 319 322 322 320 318 318 317 316 316 316 316 317 316 315 315 315 317
326 325 324 322 321 320 318 317 317 316 316 317 318 319 320 321 321 320 319 319 317 316 316 314 315 315 317 318 316 317 315 316
325 325 323 322 322 320 319 317 317 316 315 315 315 315 316 318 317 316 318 317 317 314 315 315 314 315 315 317 320 320 320 318
324 324 323 323 322 320 319 318 316 314 314 314 314 315 315 315 315 316 316 315 314 313 314 313 315 317 315 316 319 319 320 320
323 323 323 323 323 321 319 318 316 315 313 313 314 314 315 314 314 314 313 316 315 315 314 314 314 320 318 317 317 318 319 320
323 322 322 323 323 321 320 318 316 315 313 312 313 314 314 315 317 316 314 315 317 318 316 316 318 319 319 319 319 319 318 320

GFSFLT2_925_thetae_090.txt.gz
Theta_e
340 339 339 336 337 339 341 342 340 334 333 332 331 330 328 330 332 334 333 333 331 331 329 329 329 328 324 325 324 324 324 323
336 336 337 337 337 339 340 338 338 333 331 329 329 328 328 324 332 332 333 332 329 329 329 329 329 325 323 325 323 323 322 321
336 337 335 335 335 336 336 335 335 331 325 326 324 324 326 325 331 331 333 331 329 328 327 328 323 322 323 323 322 320 320 320
334 335 334 335 334 331 330 328 327 325 325 326 326 325 325 330 330 331 331 328 328 327 327 325 321 322 322 321 320 319 318 318
333 334 333 334 333 332 329 328 327 327 328 329 327 326 325 331 329 327 330 326 326 325 325 323 321 320 320 321 320 318 318 318
331 332 332 331 331 331 330 329 328 330 327 327 329 329 329 327 328 328 329 324 323 322 323 321 320 320 320 320 319 318 318 318
330 332 331 332 330 331 330 331 331 330 326 326 330 328 328 326 329 329 327 323 322 321 322 321 320 319 320 320 319 318 317 318
329 330 330 331 332 331 331 331 331 331 327 327 329 329 328 328 328 328 326 321 321 321 318 320 320 319 320 320 319 317 317 318
330 329 330 330 331 330 329 330 330 331 330 328 328 329 328 327 327 326 324 322 321 319 315 318 318 319 320 320 319 317 317 317
330 329 330 330 329 328 328 328 330 330 330 329 329 329 328 327 326 326 322 318 318 314 312 314 319 318 320 319 319 317 317 317
330 329 329 329 328 328 328 327 328 328 330 329 329 328 327 327 326 324 322 316 315 315 314 318 317 319 319 319 318 317 317 317
330 330 328 328 328 326 325 323 323 323 324 327 329 329 328 326 326 325 320 312 314 318 316 315 316 319 320 319 318 317 316 316
330 329 327 326 324 323 322 320 321 322 322 324 327 328 327 326 325 323 319 314 316 318 317 317 319 319 319 318 319 318 317 316
329 327 326 325 323 322 321 321 319 320 320 321 324 327 326 326 325 324 319 315 317 319 318 318 318 319 318 318 317 317 317 317
327 326 325 324 323 322 321 319 318 317 317 320 322 324 326 325 323 321 320 317 318 319 319 318 318 318 319 318 314 315 315 317
326 326 325 323 322 321 320 318 317 316 317 319 320 322 323 323 321 320 319 318 318 317 318 318 318 317 318 317 316 315 315 315
325 325 324 323 322 321 319 317 318 317 316 318 319 320 320 319 319 320 319 320 318 317 317 317 317 316 317 316 318 316 316 314
324 324 323 322 321 320 319 317 317 316 316 317 318 318 319 320 320 318 320 318 317 316 316 316 317 316 316 316 318 319 319 319
323 323 322 322 321 320 319 319 317 316 316 316 316 316 317 319 321 320 319 319 318 317 317 315 315 315 314 316 317 319 319 319
323 322 322 322 321 320 319 319 318 316 316 316 317 316 316 318 319 318 316 317 317 317 315 314 314 314 315 315 315 317 319 319

GFSFLT2_925_thetae_093.txt.gz
Theta_e
341 340 338 338 339 340 341 341 340 337 335 334 333 328 327 327 326 332 332 333 333 332 331 330 329 329 328 327 326 326 326 325
340 338 337 338 337 339 340 341 339 337 335 333 332 329 328 326 322 331 332 331 331 331 330 329 329 328 327 326 325 325 325 324
337 336 336 336 336 337 339 337 337 336 333 332 331 329 328 328 327 325 330 330 330 329 329 329 326 325 325 324 324 324 323 322
336 335 335 334 334 336 337 337 336 333 332 331 329 328 328 326 325 327 324 330 329 329 329 328 322 323 324 323 323 322 322 321
335 335 335 334 332 333 334 333 333 331 328 325 324 324 324 326 326 327 329 330 328 328 328 323 322 324 322 322 321 320 320 319
333 334 335 333 331 333 331 329 327 326 325 326 327 326 325 325 327 327 330 329 328 327 324 321 322 323 321 321 319 319 318 318
330 332 333 332 330 331 331 329 328 328 328 328 327 328 326 329 328 328 325 327 328 326 322 321 322 322 321 320 318 318 318 318
329 330 332 331 330 330 329 329 329 328 329 327 329 328 326 327 327 325 327 326 327 325 321 321 320 320 320 319 318 318 317 318
329 330 331 330 331 330 331 331 331 331 329 326 330 328 325 324 327 326 328 324 324 323 320 319 319 320 320 319 318 318 317 318
329 330 330 330 330 331 330 330 330 330 330 327 328 328 327 327 327 326 327 324 322 321 321 318 319 319 319 319 318 317 317 318
329 329 330 329 330 329 329 328 329 330 330 328 327 328 328 327 326 325 327 324 322 320 319 318 318 319 319 319 318 317 317 317
329 328 329 330 329 328 328 327 327 328 328 329 328 328 328 327 326 325 325 322 320 319 317 316 318 319 319 318 318 317 317 317
329 328 329 328 326 325 323 325 324 323 323 324 327 328 328 327 326 325 324 319 319 317 315 315 317 319 318 317 317 317 317 317
328 327 326 328 325 324 322 322 321 321 322 322 322 324 327 327 326 325 324 317 315 316 314 316 317 319 318 318 317 316 316 316
327 326 326 326 324 323 321 320 319 320 320 320 320 324 326 326 326 324 322 315 314 317 315 316 317 318 319 319 316 319 316 316
327 326 324 324 324 322 321 319 316 317 318 318 319 321 324 325 325 324 321 317 315 318 316 316 318 317 318 319 319 317 316 313
325 324 323 324 323 322 321 319 317 318 317 317 320 322 323 324 324 323 322 316 316 317 317 317 318 317 318 316 316 316 316 313
324 323 322 323 322 321 321 319 318 317 317 318 320 320 321 323 323 320 318 315 317 317 317 318 318 318 317 318 317 316 316 316
323 323 321 322 321 320 320 320 318 317 317 318 318 320 319 319 319 319 316 313 317 319 318 317 318 317 316 317 317 317 316 316
323 322 321 320 320 320 320 319 319 316 317 317 318 319 320 319 319 318 317 316 317 318 317 316 316 316 317 317 317 316 317 316

GFSFLT2_925_thetae_096.txt.gz
Theta_e
340 338 338 339 340 341 341 339 337 335 332 333 331 330 329 327 325 326 326 332 333 334 334 334 333 332 331 330 329 328 327 327
342 340 339 338 338 340 341 341 339 337 334 334 333 331 327 326 325 325 325 331 333 332 333 333 332 331 330 329 328 327 327 325
341 340 339 337 337 337 340 339 339 338 335 334 333 329 326 326 325 325 327 330 330 332 332 332 330 329 328 327 326 326 325 324
339 337 337 336 335 335 336 337 333 335 335 333 332 328 328 328 326 326 329 329 330 330 330 329 328 327 326 326 325 325 324 323
337 336 335 334 334 332 335 337 334 335 334 332 331 330 329 329 326 326 330 330 330 329 329 328 327 326 325 324 324 323 323 322
335 335 335 334 332 332 334 336 335 332 331 330 330 328 328 328 328 328 328 328 330 328 325 325 324 324 324 323 322 322 321 321
333 333 334 333 332 332 332 332 331 331 330 327 325 325 324 325 326 326 328 328 328 328 326 324 323 324 323 322 321 320 320 319
331 332 334 333 332 331 331 331 329 327 326 326 328 328 327 326 325 327 328 327 327 326 325 323 323 323 322 320 319 319 318 319
329 330 332 333 331 329 329 330 329 328 329 328 327 327 328 326 327 327 326 325 326 322 321 321 322 322 321 319 318 318 318 318
330 329 330 332 330 330 329 328 329 329 329 329 328 327 326 325 326 326 325 326 326 321 320 320 320 321 319 319 318 317 317 318
330 329 329 331 331 330 329 329 327 329 329 329 327 328 326 325 326 325 323 326 325 322 319 320 319 319 319 318 318 317 317 318
330 329 329 330 330 330 329 329 329 329 329 329 327 329 328 325 326 326 324 325 322 320 318 318 319 319 318 317 317 317 317 318
329 328 329 329 328 328 327 326 326 328 329 329 328 327 328 327 326 326 325 324 322 320 317 317 317 318 317 316 317 317 317 318
328 327 327 327 326 325 323 322 324 326 326 325 327 327 326 327 326 326 325 323 319 319 316 316 317 317 318 317 317 316 317 317
328 326 326 327 325 323 321 319 321 321 320 321 322 322 323 327 327 325 324 324 319 318 316 317 317 318 318 318 317 318 315 316
327 326 325 325 323 321 321 319 318 319 320 320 320 320 321 323 324 325 324 324 321 319 316 316 317 318 318 318 319 318 316 314
327 326 325 324 322 323 321 319 318 317 318 318 318 319 320 325 324 325 323 323 318 317 315 315 316 318 318 317 316 318 317 314
325 325 324 322 322 323 322 320 317 317 317 317 318 319 320 323 323 323 322 323 319 316 314 314 316 317 318 318 317 317 316 315
324 323 323 321 321 323 322 320 319 318 316 317 319 319 319 321 322 323 321 320 319 316 316 315 317 318 319 319 319 314 313 314
324 322 322 321 321 322 321 320 319 318 316 317 319 319 320 320 321 322 321 319 317 316 315 312 316 317 318 317 315 314 312 316

GFSFLT2_925_thetae_099.txt.gz
Theta_e
338 338 338 338 339 339 339 337 336 333 333 335 335 334 329 330 328 330 331 330 328 330 335 334 333 332 331 330 329 328 329 328
339 338 338 339 340 340 340 339 337 335 331 332 332 330 331 325 328 331 327 325 327 329 334 331 333 332 331 329 329 328 328 328
340 339 338 338 339 340 341 340 339 337 334 332 332 331 327 329 330 326 326 326 327 325 333 330 332 332 330 329 328 328 328 327
341 340 339 338 338 338 340 339 339 338 336 334 333 331 329 328 325 325 325 325 327 329 332 329 331 330 329 329 327 327 327 326
341 340 339 337 336 336 339 338 337 335 335 335 334 332 329 326 325 326 326 326 329 331 328 330 330 329 328 326 326 326 326 326
339 338 337 335 334 335 333 335 336 334 334 334 333 331 329 327 328 328 326 329 329 328 329 329 328 327 326 325 325 325 325 325
336 336 335 334 333 332 332 333 334 334 333 333 332 331 329 329 329 329 326 329 329 329 328 328 327 326 325 324 324 323 323 324
335 334 334 334 333 332 331 331 331 333 332 332 331 331 330 327 327 328 327 327 329 328 328 327 326 325 324 323 322 322 322 322
332 332 333 333 332 332 331 331 330 331 331 331 328 325 326 327 326 325 327 328 327 327 327 325 323 323 323 322 321 321 321 321
329 330 332 333 332 331 330 330 330 329 328 326 326 327 327 327 326 327 327 327 326 325 325 323 321 322 322 321 320 320 320 320
328 329 330 332 332 331 329 329 329 328 328 327 328 327 327 326 326 326 326 325 324 323 321 322 320 321 321 320 320 319 319 319
329 329 329 330 331 330 329 329 329 331 328 328 328 328 327 325 326 325 325 324 324 322 320 320 320 321 320 319 319 319 319 319
329 329 328 329 329 330 329 328 328 329 328 329 328 328 327 324 326 324 324 325 323 321 320 320 320 319 319 319 318 319 319 319
329 329 328 328 328 327 326 326 327 327 326 328 327 327 327 326 325 325 324 323 322 320 319 318 319 318 320 319 319 317 318 318
328 329 327 327 327 326 325 324 323 324 324 325 327 327 327 327 326 325 325 323 321 319 317 318 318 318 319 320 320 321 318 318
328 329 327 327 326 324 323 323 321 322 321 322 322 323 324 327 325 325 324 324 322 319 317 318 318 319 318 319 320 320 321 321
328 328 327 325 324 324 322 321 321 320 320 320 321 320 320 323 324 325 324 323 323 322 317 318 318 319 318 317 317 319 319 320
328 327 326 324 323 323 322 320 321 320 318 320 320 319 319 321 322 324 322 323 321 321 318 317 317 318 318 317 318 318 317 317
328 327 325 323 322 321 321 322 320 318 318 319 319 318 319 321 323 323 323 322 322 321 319 317 316 318 318 318 319 319 318 318
327 326 325 323 321 320 321 321 320 319 319 318 319 318 319 320 322 323 322 322 322 319 319 318 316 317 317 318 317 318 318 317

GFSFLT2_925_thetae_102.txt.gz
Theta_e
345 343 341 340 338 336 334 334 334 334 336 335 335 336 334 334 332 331 325 327 330 331 332 331 333 332 334 333 331 330 331 331
345 344 344 344 343 340 338 337 335 333 335 337 336 336 335 333 329 328 328 329 329 326 329 331 330 330 332 331 329 330 331 330
344 344 344 344 344 343 340 339 338 336 334 333 332 336 335 333 331 330 331 331 327 325 326 327 326 328 330 329 328 330 330 329
343 343 343 344 344 344 342 343 340 339 338 336 334 335 335 333 332 329 331 329 326 326 327 325 325 329 330 329 330 330 329 328
342 343 343 342 340 342 341 340 339 339 338 338 337 336 335 333 334 331 332 327 328 327 327 325 324 330 330 330 329 329 327 326
342 342 342 341 339 339 339 338 338 338 337 335 335 335 334 332 332 330 329 330 329 329 328 326 329 331 331 330 328 326 326 326
340 340 340 339 338 336 336 335 335 337 335 333 335 334 333 330 329 327 331 331 329 329 329 327 331 330 329 328 327 326 325 324
340 339 339 338 337 337 335 335 336 336 334 333 334 333 331 329 328 330 330 331 328 329 328 329 330 330 328 327 326 326 325 324
339 339 337 337 337 337 334 333 335 332 333 332 333 332 331 331 330 329 330 329 328 328 328 328 328 328 327 326 326 325 323 322
337 338 336 335 336 336 334 332 334 333 331 331 331 331 331 330 329 327 327 327 327 326 326 326 327 327 326 326 325 324 323 322
336 337 335 334 335 334 333 333 333 333 332 331 331 331 331 330 329 327 327 326 325 326 324 326 326 326 326 325 324 323 322 322
334 335 335 333 332 334 333 331 333 332 331 332 330 330 331 330 329 326 326 323 323 323 323 323 325 326 325 325 324 322 322 321
333 334 335 332 332 334 332 329 330 330 329 330 331 330 329 328 326 325 324 322 321 321 321 322 323 323 323 323 322 322 322 321
331 333 335 333 333 332 331 331 329 330 327 330 330 329 328 327 326 325 323 321 321 321 320 320 321 322 322 321 322 320 321 321
330 332 334 333 333 332 330 330 328 329 328 327 328 329 328 327 325 324 324 323 322 321 322 323 321 321 322 322 322 323 320 320
328 330 333 332 333 331 329 328 328 327 327 326 326 326 327 327 326 325 324 323 322 321 321 322 321 320 322 321 321 321 322 323
328 329 331 332 332 331 329 329 329 328 326 326 326 326 327 326 326 325 324 323 322 321 321 322 321 321 321 322 323 323 321 322
329 330 331 332 332 330 330 330 328 326 325 326 325 324 324 325 326 325 324 324 323 321 320 320 320 322 322 323 322 323 323 322
330 330 331 331 329 329 329 328 328 327 325 325 324 323 323 323 324 324 323 323 323 322 320 320 319 320 322 322 320 319 320 320
330 330 330 328 327 329 328 326 328 326 324 324 324 323 322 322 322 324 323 323 323 321 319 318 319 319 320 319 318 319 319 319

GFSFLT2_925_thetae_105.txt.gz
Theta_e
348 344 340 336 335 334 333 333 334 335 340 339 339 338 335 334 333 331 331 331 331 330 328 331 333 333 333 333 333 332 333 332
347 346 344 343 341 336 334 334 333 334 335 338 339 337 336 333 331 332 331 326 330 328 331 331 331 332 332 333 332 331 332 330
346 346 345 345 344 342 338 336 335 334 336 338 337 338 337 336 334 333 330 327 330 329 331 330 328 328 330 330 331 330 332 329
344 344 344 344 343 344 342 342 341 340 339 339 339 337 338 337 336 332 330 328 330 329 327 328 326 324 326 328 329 331 330 329
342 344 344 344 343 343 343 342 342 342 341 338 337 336 336 336 335 334 332 330 332 328 328 327 326 325 326 329 330 330 330 328
341 342 344 344 341 343 341 342 343 341 341 340 338 337 336 336 334 335 333 332 332 331 329 327 326 325 327 330 330 329 327 327
341 342 344 343 342 341 339 339 340 340 340 339 339 338 338 336 335 334 333 333 332 331 329 327 326 325 327 330 330 330 326 326
341 342 343 342 341 340 339 338 337 338 338 338 338 337 336 336 335 334 332 330 330 331 330 328 327 325 329 330 329 327 327 327
341 343 342 342 341 340 339 337 336 335 335 337 338 337 336 335 333 330 331 332 331 330 329 329 327 330 330 329 327 325 325 326
337 342 342 341 340 339 338 336 335 336 334 337 335 335 335 334 333 332 332 331 331 330 329 328 327 329 329 328 326 324 323 325
334 341 342 341 340 339 339 336 335 333 333 334 335 334 334 333 332 332 331 331 329 328 328 328 328 328 329 327 324 324 323 321
332 339 342 340 339 339 338 336 335 333 333 333 333 334 333 332 331 332 331 329 327 327 326 327 326 327 327 326 324 324 322 322
332 336 340 340 336 337 337 337 332 332 332 333 333 333 332 331 331 329 326 327 326 325 325 326 326 327 325 324 324 323 322 322
331 334 337 339 336 335 336 336 331 332 332 332 332 330 331 331 330 326 325 324 322 323 323 324 325 325 324 324 324 322 322 322
327 332 334 338 335 335 336 335 332 331 331 331 331 331 331 331 330 326 324 323 321 322 323 323 324 323 323 324 323 324 323 323
324 329 332 336 336 336 336 334 333 331 332 330 331 329 330 330 328 325 324 323 321 321 322 322 323 322 322 322 321 321 323 324
324 326 330 334 337 336 336 334 333 332 331 330 329 329 329 329 328 327 324 323 322 322 322 323 322 322 322 322 322 322 322 323
324 327 329 332 336 335 336 334 333 332 331 329 328 328 328 329 327 326 325 324 323 323 323 323 323 322 322 322 322 323 323 323
324 328 329 331 335 335 335 334 333 332 330 328 328 327 327 328 328 327 325 324 323 323 323 323 322 322 321 322 322 324 323 323
323 326 330 330 334 335 334 334 334 332 330 328 327 327 325 325 325 326 325 324 324 323 322 322 323 323 323 323 323 323 323 322

GFSFLT2_925_thetae_108.txt.gz
Theta_e
342 336 335 335 334 333 333 334 336 339 344 343 342 339 338 337 335 336 337 336 333 333 334 335 332 333 333 333 335 334 334 334
347 342 337 336 335 334 333 333 333 335 338 341 341 340 338 337 334 333 333 333 333 332 332 329 331 329 330 331 331 331 332 332
349 346 344 342 340 336 335 334 333 334 336 338 340 339 338 336 334 333 332 332 331 333 331 331 329 327 327 330 329 329 331 331
348 347 346 345 343 342 337 336 335 334 335 336 339 338 338 337 334 332 332 330 327 331 330 332 328 327 327 326 327 329 330 330
346 346 346 346 342 343 342 340 340 340 339 338 336 337 337 338 337 335 333 330 330 331 331 330 328 327 326 325 325 329 329 329
344 345 346 344 342 345 344 343 342 341 340 340 338 337 336 337 336 336 334 333 331 331 330 328 327 326 325 325 325 328 329 328
342 344 344 346 344 343 342 342 343 342 340 340 338 337 336 336 336 335 335 334 332 331 330 328 327 326 326 325 326 328 328 327
341 342 344 345 342 344 341 340 341 338 339 338 339 338 337 336 335 334 334 333 331 331 330 329 326 326 326 325 327 329 327 326
342 342 344 344 344 343 340 340 338 337 337 337 337 337 337 335 335 334 334 333 332 331 329 329 327 327 327 325 327 328 327 327
343 343 343 344 343 343 341 340 338 336 335 336 336 336 336 335 334 333 333 331 331 330 329 330 329 328 326 324 328 327 327 326
344 344 344 343 343 342 341 340 338 338 334 332 334 335 334 335 334 333 332 332 331 331 330 329 328 328 326 326 327 326 326 324
342 344 344 343 343 342 341 339 336 336 335 334 334 334 335 335 334 333 331 331 330 330 329 328 328 327 327 328 327 325 325 325
336 345 345 343 342 342 341 340 338 335 335 333 332 332 333 334 332 331 331 330 329 328 327 327 328 327 328 327 324 324 322 324
329 343 345 343 342 341 340 340 337 335 333 333 333 332 334 333 332 331 329 328 326 325 325 326 326 327 326 324 322 322 322 322
325 332 344 342 341 339 338 339 334 332 333 331 332 333 332 331 331 330 328 325 324 324 325 325 325 326 325 323 323 324 322 322
325 327 335 341 340 337 337 336 334 333 333 331 332 330 331 331 330 329 325 324 322 323 323 325 325 324 323 322 322 322 322 323
326 325 331 338 340 336 336 338 335 332 333 331 331 331 329 330 329 328 325 323 322 322 323 324 324 323 323 322 321 321 321 321
323 327 329 333 340 337 337 338 336 334 333 331 330 330 329 329 329 327 325 324 322 322 322 323 323 323 322 321 321 319 319 319
323 324 327 330 339 338 337 338 336 334 333 332 329 329 329 329 328 328 326 324 322 322 322 323 323 323 322 322 321 320 320 322
324 324 325 329 335 339 337 339 336 335 333 331 328 328 328 328 329 327 325 325 324 323 323 323 323 323 322 322 322 321 322 323

GFSFLT2_925_thetae_114.txt.gz
Theta_e
334 334 333 332 331 332 333 334 336 339 340 339 337 337 337 337 338 340 339 336 335 334 334 335 335 335 336 335 335 333 334 334
332 333 333 333 332 332 333 333 333 334 338 340 339 337 337 337 337 339 338 336 335 334 333 334 333 334 334 334 334 332 332 332
332 333 333 333 333 333 333 333 332 333 336 338 341 339 338 337 336 338 338 336 334 333 332 331 330 332 330 331 333 332 330 331
333 333 333 333 334 334 333 333 333 333 334 337 340 340 338 338 336 336 336 336 335 333 331 330 330 331 330 330 331 330 329 329
336 333 334 334 334 334 333 333 333 333 333 336 338 339 339 338 337 336 335 334 335 333 332 330 329 329 328 328 329 328 329 329
343 336 333 334 334 334 333 333 332 332 332 334 337 339 339 338 337 335 334 333 333 332 331 330 329 329 327 327 328 326 328 330
345 341 336 334 335 335 334 333 333 332 332 332 333 336 338 338 337 336 334 332 331 330 328 330 329 330 327 327 326 326 326 329
345 345 342 339 338 337 336 335 334 333 333 333 333 334 336 337 336 336 335 333 332 331 330 329 330 330 327 327 326 325 325 325
346 345 344 343 342 341 339 338 336 337 337 337 337 337 336 336 337 337 337 334 333 332 330 330 330 329 326 326 325 326 325 325
345 345 345 344 343 342 340 340 341 341 340 339 339 339 338 337 336 335 336 335 334 333 331 331 330 328 326 326 325 326 325 327
343 345 344 344 343 343 341 341 342 342 341 341 340 337 335 337 336 335 335 334 334 333 331 330 328 327 327 326 325 326 326 327
336 343 343 344 343 342 342 342 341 341 341 340 338 335 335 336 336 335 334 334 333 333 331 331 329 328 327 327 325 326 326 326
327 340 342 343 343 341 340 341 340 338 338 337 335 335 333 334 336 334 334 332 332 332 332 330 329 328 328 327 326 325 325 326
325 337 341 342 342 341 340 339 338 337 337 336 334 334 334 333 335 333 334 333 331 332 331 329 329 328 327 326 324 325 325 326
334 338 341 342 342 341 340 338 337 337 337 336 335 334 332 333 334 334 333 333 331 332 330 329 328 327 326 325 323 324 324 325
325 338 341 342 342 340 338 337 336 337 335 335 335 332 331 333 333 334 333 332 330 330 329 328 327 325 326 324 323 322 324 323
316 321 331 341 340 340 338 338 337 336 334 334 334 333 332 332 332 333 333 332 329 328 328 326 325 324 324 324 324 323 323 323
311 315 319 323 337 339 338 338 337 334 333 332 332 333 332 331 331 333 333 331 329 328 326 324 323 323 324 324 322 322 321 322
307 308 313 318 321 334 338 338 336 335 333 332 331 330 331 332 332 332 332 330 328 326 323 321 322 322 324 323 322 322 321 320
304 306 308 312 320 323 335 336 335 334 333 332 332 331 331 330 331 331 330 329 325 325 320 320 322 322 324 323 321 321 320 320

GFSFLT2_925_thetae_117.txt.gz
Theta_e
335 335 336 335 334 333 333 333 334 336 337 336 336 336 337 338 338 339 338 336 335 334 334 335 335 336 336 336 335 335 335 334
334 335 335 334 333 333 332 333 335 336 337 337 336 336 337 338 338 339 338 336 334 333 333 334 335 335 335 335 335 333 333 334
335 335 334 333 333 333 333 334 335 336 337 338 337 337 337 337 338 339 338 336 333 333 333 334 334 333 333 334 334 332 332 332
336 335 333 333 333 334 335 335 336 336 338 338 338 337 337 337 337 338 338 336 334 332 331 332 331 331 331 332 333 332 330 329
334 334 333 333 334 334 335 336 336 336 336 335 338 338 338 338 337 338 338 337 334 333 332 331 330 330 330 330 330 331 331 329
333 332 332 333 333 333 333 334 335 335 336 335 338 338 338 338 337 336 337 337 335 333 332 330 330 329 330 328 329 329 329 328
334 333 332 331 332 333 332 333 333 333 334 335 336 337 336 337 337 336 336 336 335 334 332 331 330 329 329 327 327 328 327 328
338 334 332 332 332 332 331 332 332 332 332 334 335 335 335 336 337 337 335 334 333 332 331 331 329 329 329 328 327 326 326 326
342 339 335 331 331 331 332 332 332 332 332 332 333 334 335 335 336 337 336 334 333 331 330 329 329 330 329 328 327 326 325 325
344 343 341 336 333 331 332 332 332 332 332 332 332 333 333 335 336 336 335 335 333 332 331 330 330 330 329 328 326 326 325 326
344 344 344 342 340 337 337 337 335 334 333 333 334 335 336 336 336 335 335 336 335 333 332 330 329 329 329 327 326 325 325 326
341 344 344 344 342 340 340 340 338 338 336 338 338 337 337 338 337 336 335 335 335 334 332 329 328 328 328 326 325 325 325 326
339 341 343 343 342 340 340 340 340 339 340 340 339 339 339 337 336 336 335 334 334 333 332 330 329 328 326 327 326 326 326 326
318 338 340 342 342 341 340 340 338 339 341 341 340 340 338 335 335 335 335 334 332 332 332 329 328 328 327 325 325 325 325 326
324 334 337 340 342 340 340 339 338 336 337 340 340 338 337 335 333 334 335 334 331 330 330 330 329 328 328 326 323 325 324 325
317 329 337 339 341 340 338 338 337 337 337 337 337 337 334 334 333 333 334 333 332 330 330 329 329 328 327 327 324 322 325 324
312 317 326 335 340 341 338 337 336 335 335 335 336 336 334 334 333 332 334 333 332 331 331 328 329 327 326 326 325 324 322 322
308 312 316 321 327 336 338 337 336 335 334 333 333 333 334 333 333 331 333 333 332 331 330 327 328 327 325 324 324 323 323 322
303 307 310 314 317 322 329 336 337 337 334 332 331 332 332 332 331 331 332 332 332 332 330 327 327 325 325 324 323 323 323 323
301 303 305 309 311 313 319 326 336 336 331 332 332 332 332 331 330 330 331 331 331 331 329 327 324 323 323 321 322 323 322 322

GFSFLT2_925_thetae_120.txt.gz
Theta_e
339 338 338 338 337 337 336 336 336 335 334 334 334 335 336 336 338 338 337 336 335 334 334 334 335 336 336 336 335 335 335 334
337 337 337 337 336 336 335 334 334 336 335 335 335 335 336 336 337 338 337 335 334 333 334 334 335 336 336 335 335 334 335 334
337 336 337 336 336 335 334 334 335 336 337 336 336 336 336 337 337 338 337 335 334 333 333 334 334 335 335 335 334 332 333 333
336 336 336 336 336 335 334 334 336 338 338 337 337 336 336 337 337 339 338 336 333 333 332 334 333 333 334 334 333 332 332 333
335 335 335 336 336 337 336 336 337 337 337 338 337 337 337 337 337 339 339 336 334 334 333 333 332 331 331 333 333 331 331 330
335 335 335 335 335 337 340 339 337 337 336 337 339 338 338 337 337 338 338 337 335 333 333 332 331 330 330 330 330 330 330 330
334 335 334 335 335 336 340 340 337 335 335 335 336 339 338 338 337 337 337 337 336 334 333 332 331 330 329 329 328 328 328 328
334 334 334 334 334 334 335 337 337 335 333 334 334 338 339 337 337 337 336 337 336 335 334 332 331 330 329 328 327 327 327 327
334 333 334 333 332 332 332 331 332 333 332 332 334 335 336 335 336 337 336 336 335 335 334 332 332 331 329 328 327 327 326 326
338 335 334 333 332 332 332 332 331 331 331 332 332 334 333 334 335 336 336 336 334 334 333 332 331 330 329 329 328 327 326 325
342 340 336 333 333 333 331 332 332 332 332 332 332 333 333 333 334 334 336 336 334 333 332 330 329 329 329 329 328 327 326 325
341 342 341 339 335 335 333 333 332 332 331 331 331 332 333 333 333 334 335 335 334 333 332 330 329 328 328 327 327 327 325 325
339 342 342 341 339 337 336 336 335 334 333 332 331 332 332 333 334 335 335 335 333 334 333 331 329 330 327 326 326 327 326 326
313 334 342 342 341 339 339 338 337 336 336 336 335 334 336 335 336 336 336 335 334 334 332 330 329 329 327 326 326 325 326 327
314 318 334 341 341 340 340 339 338 337 337 337 337 337 338 337 337 337 335 334 333 333 330 330 328 328 328 327 324 326 324 325
313 318 328 336 341 340 339 338 337 337 336 336 338 340 339 339 338 337 334 334 333 332 329 328 329 326 326 328 325 323 324 324
309 312 319 329 338 340 340 338 338 337 337 336 337 334 336 339 338 337 334 333 333 332 330 328 327 328 327 326 326 323 323 322
305 307 310 316 327 332 335 337 337 336 335 335 334 335 334 336 336 335 334 333 331 333 330 329 328 328 327 327 326 325 323 322
302 303 305 311 316 319 324 329 332 336 335 334 333 332 333 333 332 333 333 332 331 331 329 328 327 327 326 326 327 325 324 323
299 300 302 303 309 315 317 319 323 328 334 333 333 333 333 330 330 332 331 331 330 330 330 330 329 327 326 326 325 324 324 322

GFSFLT2_925_thetae_123.txt.gz
Theta_e
340 339 339 339 338 338 337 336 334 333 333 334 334 335 336 337 338 339 340 340 337 334 333 333 334 335 335 335 335 336 338 335
340 340 340 339 339 338 338 337 336 334 334 334 334 335 337 337 338 338 339 337 335 334 333 334 334 335 335 335 335 335 337 336
341 340 340 339 339 338 337 337 336 335 334 334 335 339 339 338 339 337 337 335 334 333 333 334 334 335 335 335 334 336 336 336
340 340 340 339 339 338 338 338 338 337 336 336 338 339 340 341 339 338 337 335 334 333 333 334 334 335 335 335 334 333 334 335
339 339 339 338 339 339 339 340 339 338 337 336 336 337 337 338 339 340 339 337 336 335 334 334 334 334 334 334 334 333 333 334
338 338 338 338 338 338 339 338 343 340 338 337 337 337 337 339 339 339 340 339 337 337 336 333 333 332 331 332 333 333 332 332
337 336 337 337 337 338 339 338 339 343 340 338 337 337 337 337 338 338 339 338 336 334 334 332 332 330 330 330 330 330 329 330
335 336 336 336 337 336 337 338 338 343 339 338 338 337 337 337 337 337 338 338 336 335 333 333 333 331 329 329 329 329 328 328
334 333 336 336 336 335 335 336 337 340 338 338 338 339 337 336 337 337 337 338 337 335 334 333 332 331 330 329 328 328 328 328
338 334 334 336 336 335 334 335 336 336 334 335 338 340 339 339 340 337 336 336 337 336 335 334 332 332 332 330 329 328 328 328
340 337 334 333 335 335 335 333 334 335 334 334 335 336 337 338 339 336 336 336 336 336 335 333 332 331 331 331 328 328 328 328
340 340 337 334 335 335 335 334 334 333 331 331 332 335 337 339 335 334 334 336 335 334 332 331 330 329 327 328 328 327 327 328
339 342 340 337 335 335 335 334 333 333 333 333 332 332 335 335 334 333 334 334 334 333 332 330 329 330 328 327 327 328 327 327
323 335 342 340 338 336 336 335 335 334 333 333 333 332 331 332 332 332 333 334 334 332 331 329 329 329 328 328 329 327 326 327
313 317 336 341 341 340 338 338 337 335 334 334 333 333 332 331 332 332 332 333 334 333 332 331 330 328 330 330 329 332 327 326
310 316 320 331 339 340 338 339 338 337 336 335 334 335 334 333 332 333 333 334 333 334 332 332 331 329 327 328 328 327 330 330
308 313 315 323 331 338 339 338 339 339 337 335 335 337 335 334 334 334 334 334 334 332 332 331 330 329 328 327 327 326 326 327
305 308 309 312 322 329 334 338 338 336 338 337 336 336 335 335 335 334 334 334 332 331 333 331 330 328 328 327 326 326 325 326
301 303 304 306 310 315 319 324 327 330 337 336 335 334 333 334 334 334 335 334 334 331 331 331 330 329 328 328 328 328 328 326
299 300 301 302 305 307 313 316 316 319 323 329 335 334 333 333 332 333 333 334 333 331 330 330 330 329 329 327 327 327 327 325